Wetterdaten: aktuell Freitag, 22.03.2019 09:37
Datum Zeit Temp. I. Temp. 2m Temp. 5cm LF I. Luftf.2m Luftdruck Regen Wind Richtung Richtung Taupunkt Windchill Windben
22.03.2019 09:37 17,9 C 8,9 C 7,7 C 48 % 57 % 1032,4 hPa 0,0 l/m 5,6 km/h (1 Bft) W-SW 247 0,9 C 8,3 C 6,7 km/h (2 Bft)
22.03.2019 09:36 17,9 C 8,7 C 7,6 C 48 % 56 % 1032,4 hPa 0,0 l/m 6,0 km/h (2 Bft) O-SO 112 0,4 C 8,0 C 10,9 km/h (2 Bft)
22.03.2019 09:35 17,9 C 8,7 C 7,6 C 48 % 56 % 1032,4 hPa 0,0 l/m 6,0 km/h (2 Bft) O-SO 112 0,4 C 8,0 C 10,9 km/h (2 Bft)
22.03.2019 09:34 17,9 C 8,4 C 7,5 C 48 % 56 % 1032,4 hPa 0,0 l/m 6,0 km/h (2 Bft) SO 135 0,1 C 7,6 C 9,6 km/h (2 Bft)
22.03.2019 09:33 17,9 C 8,4 C 7,5 C 48 % 56 % 1032,4 hPa 0,0 l/m 6,0 km/h (2 Bft) SO 135 0,1 C 7,6 C 9,6 km/h (2 Bft)
22.03.2019 09:32 17,9 C 8,5 C 7,4 C 48 % 56 % 1032,4 hPa 0,0 l/m 6,0 km/h (2 Bft) O-SO 112 0,2 C 7,7 C 7,9 km/h (2 Bft)
22.03.2019 09:31 17,9 C 8,5 C 7,4 C 48 % 56 % 1032,4 hPa 0,0 l/m 6,0 km/h (2 Bft) O-SO 112 0,2 C 7,7 C 7,9 km/h (2 Bft)
22.03.2019 09:30 17,9 C 8,5 C 7,6 C 48 % 57 % 1032,4 hPa 0,0 l/m 5,8 km/h (2 Bft) SO 135 0,5 C 7,8 C 6,5 km/h (2 Bft)
22.03.2019 09:29 17,9 C 8,5 C 7,6 C 48 % 57 % 1032,4 hPa 0,0 l/m 5,8 km/h (2 Bft) SO 135 0,5 C 7,8 C 6,5 km/h (2 Bft)
22.03.2019 09:28 17,9 C 8,7 C 7,8 C 48 % 59 % 1032,4 hPa 0,0 l/m 6,0 km/h (2 Bft) O-SO 112 1,1 C 8,0 C 10,3 km/h (2 Bft)
22.03.2019 09:27 17,9 C 8,7 C 7,8 C 48 % 59 % 1032,4 hPa 0,0 l/m 6,0 km/h (2 Bft) O-SO 112 1,1 C 8,0 C 10,3 km/h (2 Bft)
22.03.2019 09:26 17,9 C 8,5 C 7,2 C 48 % 58 % 1032,4 hPa 0,0 l/m 6,1 km/h (2 Bft) O-SO 112 0,7 C 7,7 C 7,3 km/h (2 Bft)
22.03.2019 09:25 17,9 C 8,5 C 7,2 C 48 % 58 % 1032,4 hPa 0,0 l/m 6,1 km/h (2 Bft) O-SO 112 0,7 C 7,7 C 7,3 km/h (2 Bft)
22.03.2019 09:24 17,9 C 8,2 C 7,0 C 48 % 57 % 1032,4 hPa 0,0 l/m 6,3 km/h (2 Bft) O-SO 112 0,2 C 7,3 C 6,1 km/h (2 Bft)
22.03.2019 09:23 17,9 C 8,2 C 7,0 C 48 % 57 % 1032,4 hPa 0,0 l/m 6,3 km/h (2 Bft) O-SO 112 0,2 C 7,3 C 6,1 km/h (2 Bft)
22.03.2019 09:22 17,9 C 8,3 C 6,8 C 48 % 58 % 1032,4 hPa 0,0 l/m 6,6 km/h (2 Bft) O-SO 112 0,5 C 7,4 C 11,5 km/h (2 Bft)
22.03.2019 09:21 17,9 C 8,3 C 6,8 C 48 % 58 % 1032,4 hPa 0,0 l/m 6,6 km/h (2 Bft) O-SO 112 0,5 C 7,4 C 11,5 km/h (2 Bft)
22.03.2019 09:20 17,9 C 8,1 C 6,7 C 48 % 58 % 1032,4 hPa 0,0 l/m 6,4 km/h (2 Bft) SO 135 0,3 C 7,2 C 7,9 km/h (2 Bft)
22.03.2019 09:19 17,9 C 8,1 C 6,7 C 48 % 58 % 1032,4 hPa 0,0 l/m 6,4 km/h (2 Bft) SO 135 0,3 C 7,2 C 7,9 km/h (2 Bft)
22.03.2019 09:18 17,9 C 8,1 C 6,9 C 48 % 59 % 1032,4 hPa 0,0 l/m 6,3 km/h (2 Bft) O 90 0,6 C 7,2 C 7,9 km/h (2 Bft)
22.03.2019 09:17 17,9 C 8,1 C 6,9 C 48 % 59 % 1032,4 hPa 0,0 l/m 6,3 km/h (2 Bft) O 90 0,6 C 7,2 C 7,9 km/h (2 Bft)
22.03.2019 09:16 17,9 C 8,0 C 6,5 C 49 % 59 % 1032,4 hPa 0,0 l/m 6,3 km/h (2 Bft) SO 135 0,5 C 7,1 C 9,6 km/h (2 Bft)
22.03.2019 09:15 17,9 C 8,0 C 6,5 C 49 % 59 % 1032,4 hPa 0,0 l/m 6,3 km/h (2 Bft) SO 135 0,5 C 7,1 C 9,6 km/h (2 Bft)
22.03.2019 09:14 17,9 C 7,9 C 6,4 C 49 % 59 % 1032,5 hPa 0,0 l/m 6,4 km/h (2 Bft) O-SO 112 0,4 C 6,9 C 10,5 km/h (2 Bft)
22.03.2019 09:13 17,9 C 7,9 C 6,4 C 49 % 59 % 1032,5 hPa 0,0 l/m 6,4 km/h (2 Bft) O-SO 112 0,4 C 6,9 C 10,5 km/h (2 Bft)
22.03.2019 09:12 17,9 C 7,8 C 6,2 C 49 % 59 % 1032,5 hPa 0,0 l/m 6,3 km/h (2 Bft) O-NO 67 0,3 C 6,9 C 15,3 km/h (3 Bft)
22.03.2019 09:11 17,9 C 7,8 C 6,2 C 49 % 59 % 1032,5 hPa 0,0 l/m 6,3 km/h (2 Bft) O-NO 67 0,3 C 6,9 C 13,2 km/h (3 Bft)
22.03.2019 09:10 17,8 C 7,7 C 5,9 C 49 % 59 % 1032,5 hPa 0,0 l/m 6,1 km/h (2 Bft) SO 135 0,2 C 6,8 C 7,5 km/h (2 Bft)
22.03.2019 09:09 17,8 C 7,7 C 5,9 C 49 % 59 % 1032,5 hPa 0,0 l/m 6,1 km/h (2 Bft) SO 135 0,2 C 6,8 C 7,5 km/h (2 Bft)
22.03.2019 09:08 17,8 C 7,8 C 5,9 C 49 % 60 % 1032,5 hPa 0,0 l/m 6,3 km/h (2 Bft) O-SO 112 0,5 C 6,9 C 7,9 km/h (2 Bft)
22.03.2019 09:07 17,8 C 7,8 C 5,9 C 49 % 60 % 1032,5 hPa 0,0 l/m 6,3 km/h (2 Bft) O-SO 112 0,5 C 6,9 C 7,9 km/h (2 Bft)
22.03.2019 09:06 17,8 C 7,4 C 5,9 C 49 % 59 % 1032,5 hPa 0,0 l/m 6,1 km/h (2 Bft) O-SO 112 -0,1 C 6,5 C 7,9 km/h (2 Bft)
22.03.2019 09:05 17,8 C 7,4 C 5,9 C 49 % 59 % 1032,5 hPa 0,0 l/m 6,1 km/h (2 Bft) O-SO 112 -0,1 C 6,5 C 7,9 km/h (2 Bft)
22.03.2019 09:04 17,8 C 7,2 C 5,7 C 49 % 60 % 1032,5 hPa 0,0 l/m 6,3 km/h (2 Bft) O 90 -0,0 C 6,2 C 15,3 km/h (3 Bft)
22.03.2019 09:03 17,8 C 7,2 C 5,7 C 49 % 60 % 1032,5 hPa 0,0 l/m 6,3 km/h (2 Bft) O 90 -0,0 C 6,2 C 15,3 km/h (3 Bft)
22.03.2019 09:02 17,8 C 7,2 C 5,8 C 50 % 60 % 1032,5 hPa 0,0 l/m 5,8 km/h (2 Bft) O-SO 112 -0,0 C 6,3 C 12,3 km/h (3 Bft)
22.03.2019 09:01 17,8 C 7,2 C 5,8 C 50 % 60 % 1032,5 hPa 0,0 l/m 5,8 km/h (2 Bft) O-SO 112 -0,0 C 6,3 C 11,5 km/h (2 Bft)
22.03.2019 09:00 17,8 C 7,0 C 5,6 C 50 % 60 % 1032,5 hPa 0,0 l/m 5,6 km/h (1 Bft) O-SO 112 -0,2 C 6,1 C 9,0 km/h (2 Bft)
22.03.2019 08:59 17,8 C 7,0 C 5,6 C 50 % 60 % 1032,5 hPa 0,0 l/m 5,6 km/h (1 Bft) O-SO 112 -0,2 C 6,1 C 9,0 km/h (2 Bft)
22.03.2019 08:58 17,8 C 6,9 C 5,4 C 50 % 61 % 1032,5 hPa 0,0 l/m 5,3 km/h (1 Bft) O-SO 112 -0,1 C 6,1 C 6,9 km/h (2 Bft)
22.03.2019 08:57 17,8 C 6,9 C 5,4 C 50 % 61 % 1032,5 hPa 0,0 l/m 5,3 km/h (1 Bft) O-SO 112 -0,1 C 6,1 C 6,9 km/h (2 Bft)
22.03.2019 08:56 17,8 C 6,8 C 5,3 C 50 % 60 % 1032,5 hPa 0,0 l/m 5,5 km/h (1 Bft) O-SO 112 -0,4 C 6,0 C 8,8 km/h (2 Bft)
22.03.2019 08:55 17,8 C 6,8 C 5,3 C 50 % 60 % 1032,5 hPa 0,0 l/m 5,5 km/h (1 Bft) O-SO 112 -0,4 C 6,0 C 8,8 km/h (2 Bft)
22.03.2019 08:54 17,8 C 6,6 C 5,1 C 50 % 61 % 1032,6 hPa 0,0 l/m 5,1 km/h (1 Bft) O 90 -0,4 C 5,9 C 8,4 km/h (2 Bft)
22.03.2019 08:53 17,8 C 6,6 C 5,1 C 50 % 61 % 1032,6 hPa 0,0 l/m 5,1 km/h (1 Bft) O 90 -0,4 C 5,9 C 8,4 km/h (2 Bft)
22.03.2019 08:52 17,8 C 6,5 C 5,0 C 50 % 60 % 1032,6 hPa 0,0 l/m 4,8 km/h (1 Bft) O-NO 67 -0,7 C 5,9 C 11,3 km/h (2 Bft)
22.03.2019 08:51 17,8 C 6,5 C 5,0 C 50 % 60 % 1032,6 hPa 0,0 l/m 4,8 km/h (1 Bft) O-NO 67 -0,7 C 5,9 C 6,5 km/h (2 Bft)
22.03.2019 08:50 17,8 C 6,5 C 5,0 C 50 % 61 % 1032,6 hPa 0,0 l/m 4,8 km/h (1 Bft) O-SO 112 -0,5 C 5,9 C 6,7 km/h (2 Bft)
22.03.2019 08:49 17,8 C 6,5 C 5,0 C 50 % 61 % 1032,6 hPa 0,0 l/m 4,8 km/h (1 Bft) O-SO 112 -0,5 C 5,9 C 6,7 km/h (2 Bft)
22.03.2019 08:48 17,8 C 6,4 C 4,9 C 50 % 62 % 1032,6 hPa 0,0 l/m 4,5 km/h (1 Bft) O 90 -0,3 C 6,4 C 5,6 km/h (1 Bft)
22.03.2019 08:47 17,8 C 6,4 C 4,9 C 50 % 62 % 1032,6 hPa 0,0 l/m 4,5 km/h (1 Bft) O 90 -0,3 C 6,4 C 5,6 km/h (1 Bft)
22.03.2019 08:46 17,8 C 6,3 C 4,7 C 50 % 62 % 1032,6 hPa 0,0 l/m 4,3 km/h (1 Bft) O-SO 112 -0,4 C 6,3 C 9,6 km/h (2 Bft)
22.03.2019 08:45 17,8 C 6,3 C 4,7 C 50 % 62 % 1032,6 hPa 0,0 l/m 4,3 km/h (1 Bft) O-SO 112 -0,4 C 6,3 C 9,6 km/h (2 Bft)
22.03.2019 08:44 17,8 C 6,4 C 4,7 C 50 % 62 % 1032,6 hPa 0,0 l/m 3,9 km/h (1 Bft) O-NO 67 -0,3 C 6,4 C 6,9 km/h (2 Bft)
22.03.2019 08:43 17,8 C 6,4 C 4,7 C 50 % 62 % 1032,6 hPa 0,0 l/m 3,9 km/h (1 Bft) O-NO 67 -0,3 C 6,4 C 6,9 km/h (2 Bft)
22.03.2019 08:42 17,7 C 6,3 C 4,6 C 50 % 63 % 1032,6 hPa 0,0 l/m 3,7 km/h (1 Bft) O 90 -0,2 C 6,3 C 9,4 km/h (2 Bft)
22.03.2019 08:41 17,7 C 6,3 C 4,6 C 50 % 63 % 1032,6 hPa 0,0 l/m 3,7 km/h (1 Bft) O 90 -0,2 C 6,3 C 5,2 km/h (1 Bft)
22.03.2019 08:40 17,7 C 6,4 C 4,5 C 50 % 63 % 1032,6 hPa 0,0 l/m 3,5 km/h (1 Bft) O-SO 112 -0,1 C 6,4 C 9,4 km/h (2 Bft)
22.03.2019 08:39 17,7 C 6,4 C 4,5 C 50 % 63 % 1032,6 hPa 0,0 l/m 3,5 km/h (1 Bft) O-SO 112 -0,1 C 6,4 C 9,4 km/h (2 Bft)
22.03.2019 08:38 17,7 C 5,9 C 4,3 C 50 % 63 % 1032,6 hPa 0,0 l/m 3,1 km/h (1 Bft) O-SO 112 -0,6 C 5,9 C 4,0 km/h (1 Bft)
22.03.2019 08:37 17,7 C 5,9 C 4,3 C 50 % 63 % 1032,6 hPa 0,0 l/m 3,1 km/h (1 Bft) O-SO 112 -0,6 C 5,9 C 4,0 km/h (1 Bft)
22.03.2019 08:36 17,7 C 5,8 C 4,3 C 50 % 65 % 1032,6 hPa 0,0 l/m 2,1 km/h (1 Bft) O-NO 67 -0,3 C 5,8 C 4,2 km/h (1 Bft)
22.03.2019 08:35 17,7 C 5,8 C 4,3 C 50 % 65 % 1032,6 hPa 0,0 l/m 2,1 km/h (1 Bft) O-NO 67 -0,3 C 5,8 C 4,2 km/h (1 Bft)
22.03.2019 08:34 17,7 C 5,7 C 4,3 C 50 % 66 % 1032,7 hPa 0,0 l/m 1,8 km/h (1 Bft) O 90 -0,1 C 5,7 C 5,6 km/h (1 Bft)
22.03.2019 08:33 17,7 C 5,7 C 4,3 C 50 % 66 % 1032,7 hPa 0,0 l/m 1,8 km/h (1 Bft) O 90 -0,1 C 5,7 C 5,6 km/h (1 Bft)
22.03.2019 08:32 17,7 C 5,6 C 4,1 C 50 % 69 % 1032,7 hPa 0,0 l/m 1,1 km/h (1 Bft) O 90 0,4 C 5,6 C 6,3 km/h (2 Bft)
22.03.2019 08:31 17,7 C 5,6 C 4,1 C 50 % 69 % 1032,7 hPa 0,0 l/m 1,1 km/h (1 Bft) O 90 0,4 C 5,6 C 5,9 km/h (2 Bft)
22.03.2019 08:30 17,7 C 5,4 C 3,2 C 50 % 71 % 1032,7 hPa 0,0 l/m 0,6 km/h (0 Bft) O-SO 112 0,6 C 5,4 C 6,3 km/h (2 Bft)
22.03.2019 08:29 17,7 C 5,4 C 3,2 C 50 % 71 % 1032,7 hPa 0,0 l/m 0,6 km/h (0 Bft) O-SO 112 0,6 C 5,4 C 6,3 km/h (2 Bft)
22.03.2019 08:28 17,7 C 5,0 C 2,7 C 50 % 72 % 1032,7 hPa 0,0 l/m 0,2 km/h (0 Bft) N-NO 22 0,4 C 5,0 C 0,0 km/h (0 Bft)
22.03.2019 08:27 17,7 C 5,0 C 2,7 C 50 % 72 % 1032,7 hPa 0,0 l/m 0,2 km/h (0 Bft) N-NO 22 0,4 C 5,0 C 0,0 km/h (0 Bft)
22.03.2019 08:26 17,6 C 4,4 C 2,6 C 50 % 73 % 1032,7 hPa 0,0 l/m 0,2 km/h (0 Bft) O-SO 112 -0,0 C 4,4 C 0,0 km/h (0 Bft)
22.03.2019 08:25 17,6 C 4,4 C 2,6 C 50 % 73 % 1032,7 hPa 0,0 l/m 0,2 km/h (0 Bft) O-SO 112 -0,0 C 4,4 C 0,0 km/h (0 Bft)
22.03.2019 08:24 17,6 C 4,5 C 2,5 C 50 % 74 % 1032,7 hPa 0,0 l/m 0,2 km/h (0 Bft) N 360 0,3 C 4,5 C 0,0 km/h (0 Bft)
22.03.2019 08:23 17,6 C 4,5 C 2,5 C 50 % 74 % 1032,7 hPa 0,0 l/m 0,2 km/h (0 Bft) N 360 0,3 C 4,5 C 0,0 km/h (0 Bft)
22.03.2019 08:22 17,6 C 4,4 C 2,6 C 50 % 75 % 1032,7 hPa 0,0 l/m 0,2 km/h (0 Bft) N-NW 337 0,4 C 4,4 C 0,0 km/h (0 Bft)
22.03.2019 08:21 17,6 C 4,4 C 2,6 C 50 % 75 % 1032,7 hPa 0,0 l/m 0,2 km/h (0 Bft) N-NW 337 0,4 C 4,4 C 0,0 km/h (0 Bft)
22.03.2019 08:20 17,6 C 4,3 C 2,4 C 50 % 76 % 1032,7 hPa 0,0 l/m 0,2 km/h (0 Bft) NW 315 0,5 C 4,3 C 0,0 km/h (0 Bft)
22.03.2019 08:19 17,6 C 4,3 C 2,4 C 50 % 76 % 1032,7 hPa 0,0 l/m 0,2 km/h (0 Bft) NW 315 0,5 C 4,3 C 0,0 km/h (0 Bft)
22.03.2019 08:18 17,6 C 3,9 C 2,1 C 50 % 77 % 1032,7 hPa 0,0 l/m 0,2 km/h (0 Bft) N-NW 337 0,2 C 3,9 C 0,0 km/h (0 Bft)
22.03.2019 08:17 17,6 C 3,9 C 2,1 C 50 % 77 % 1032,7 hPa 0,0 l/m 0,2 km/h (0 Bft) N-NW 337 0,2 C 3,9 C 0,0 km/h (0 Bft)
22.03.2019 08:16 17,6 C 3,5 C 2,2 C 50 % 78 % 1032,7 hPa 0,0 l/m 0,0 km/h (0 Bft) W-SW 247 0,0 C 3,5 C 0,0 km/h (0 Bft)
22.03.2019 08:15 17,6 C 3,5 C 2,2 C 50 % 78 % 1032,7 hPa 0,0 l/m 0,0 km/h (0 Bft) W-SW 247 0,0 C 3,5 C 0,0 km/h (0 Bft)
22.03.2019 08:14 17,6 C 3,3 C 2,3 C 50 % 79 % 1032,9 hPa 0,0 l/m 0,0 km/h (0 Bft) S-SO 157 0,0 C 3,3 C 0,0 km/h (0 Bft)
22.03.2019 08:13 17,6 C 3,3 C 2,3 C 50 % 79 % 1032,9 hPa 0,0 l/m 0,0 km/h (0 Bft) S-SO 157 0,0 C 3,3 C 0,0 km/h (0 Bft)
22.03.2019 08:12 17,6 C 3,2 C 2,5 C 50 % 80 % 1032,9 hPa 0,0 l/m 0,0 km/h (0 Bft) S-SO 157 0,1 C 3,2 C 0,0 km/h (0 Bft)
22.03.2019 08:11 17,6 C 3,2 C 2,5 C 50 % 80 % 1032,9 hPa 0,0 l/m 0,0 km/h (0 Bft) S-SO 157 0,1 C 3,2 C 0,0 km/h (0 Bft)
22.03.2019 08:10 17,6 C 3,0 C 2,9 C 50 % 80 % 1032,9 hPa 0,0 l/m 0,0 km/h (0 Bft) S-SO 157 -0,1 C 3,0 C 0,0 km/h (0 Bft)
22.03.2019 08:09 17,6 C 3,0 C 2,9 C 50 % 80 % 1032,9 hPa 0,0 l/m 0,0 km/h (0 Bft) S-SO 157 -0,1 C 3,0 C 0,0 km/h (0 Bft)
22.03.2019 08:08 17,6 C 2,7 C 2,6 C 50 % 82 % 1032,9 hPa 0,0 l/m 0,0 km/h (0 Bft) S-SO 157 -0,1 C 2,7 C 0,0 km/h (0 Bft)
22.03.2019 08:07 17,6 C 2,7 C 2,6 C 50 % 82 % 1032,9 hPa 0,0 l/m 0,0 km/h (0 Bft) S-SO 157 -0,1 C 2,7 C 0,0 km/h (0 Bft)
22.03.2019 08:06 17,5 C 2,4 C 1,5 C 50 % 82 % 1032,9 hPa 0,0 l/m 0,0 km/h (0 Bft) S-SO 157 -0,4 C 2,4 C 0,0 km/h (0 Bft)
22.03.2019 08:05 17,5 C 2,4 C 1,5 C 50 % 82 % 1032,9 hPa 0,0 l/m 0,0 km/h (0 Bft) S-SO 157 -0,4 C 2,4 C 0,0 km/h (0 Bft)
22.03.2019 08:04 17,5 C 2,3 C 0,8 C 50 % 82 % 1032,9 hPa 0,0 l/m 0,0 km/h (0 Bft) S-SO 157 -0,4 C 2,3 C 0,0 km/h (0 Bft)
22.03.2019 08:03 17,5 C 2,3 C 0,8 C 50 % 82 % 1032,9 hPa 0,0 l/m 0,0 km/h (0 Bft) S-SO 157 -0,4 C 2,3 C 0,0 km/h (0 Bft)
22.03.2019 08:02 17,5 C 2,0 C 0,1 C 50 % 82 % 1032,9 hPa 0,0 l/m 0,0 km/h (0 Bft) NW 315 -0,7 C 2,0 C 0,0 km/h (0 Bft)
22.03.2019 08:01 17,5 C 2,0 C 0,1 C 50 % 82 % 1032,9 hPa 0,0 l/m 0,0 km/h (0 Bft) NW 315 -0,7 C 2,0 C 0,0 km/h (0 Bft)
22.03.2019 08:00 17,5 C 1,8 C -0,1 C 50 % 82 % 1032,9 hPa 0,0 l/m 0,0 km/h (0 Bft) W 270 -0,9 C 1,8 C 0,0 km/h (0 Bft)
22.03.2019 07:59 17,5 C 1,8 C -0,1 C 50 % 82 % 1032,9 hPa 0,0 l/m 0,0 km/h (0 Bft) W 270 -0,9 C 1,8 C 0,0 km/h (0 Bft)
22.03.2019 07:58 17,5 C 1,4 C -0,1 C 50 % 81 % 1032,9 hPa 0,0 l/m 0,2 km/h (0 Bft) W-SW 247 -1,5 C 1,4 C 0,0 km/h (0 Bft)
22.03.2019 07:57 17,5 C 1,4 C -0,1 C 50 % 81 % 1032,9 hPa 0,0 l/m 0,2 km/h (0 Bft) W-SW 247 -1,5 C 1,4 C 0,0 km/h (0 Bft)
22.03.2019 07:56 17,4 C 0,8 C -0,3 C 50 % 80 % 1032,9 hPa 0,0 l/m 0,2 km/h (0 Bft) W-SW 247 -2,2 C 0,8 C 0,0 km/h (0 Bft)
22.03.2019 07:55 17,4 C 0,8 C -0,3 C 50 % 80 % 1032,9 hPa 0,0 l/m 0,2 km/h (0 Bft) W-SW 247 -2,2 C 0,8 C 0,0 km/h (0 Bft)
22.03.2019 07:54 17,4 C 0,6 C -0,4 C 50 % 79 % 1032,7 hPa 0,0 l/m 0,2 km/h (0 Bft) N-NW 337 -2,6 C 0,6 C 0,0 km/h (0 Bft)
22.03.2019 07:53 17,4 C 0,6 C -0,4 C 50 % 79 % 1032,7 hPa 0,0 l/m 0,2 km/h (0 Bft) N-NW 337 -2,6 C 0,6 C 0,0 km/h (0 Bft)
22.03.2019 07:52 17,4 C 0,6 C -0,4 C 50 % 79 % 1032,7 hPa 0,0 l/m 0,3 km/h (0 Bft) N-NW 337 -2,6 C 0,6 C 0,0 km/h (0 Bft)
22.03.2019 07:51 17,4 C 0,6 C -0,4 C 50 % 79 % 1032,7 hPa 0,0 l/m 0,3 km/h (0 Bft) N-NW 337 -2,6 C 0,6 C 0,0 km/h (0 Bft)
22.03.2019 07:50 17,4 C 0,4 C -0,5 C 50 % 79 % 1032,7 hPa 0,0 l/m 0,6 km/h (0 Bft) W-NW 292 -2,8 C 0,4 C 0,0 km/h (0 Bft)
22.03.2019 07:49 17,4 C 0,4 C -0,5 C 50 % 79 % 1032,7 hPa 0,0 l/m 0,6 km/h (0 Bft) W-NW 292 -2,8 C 0,4 C 0,0 km/h (0 Bft)
22.03.2019 07:48 17,4 C 0,2 C -0,7 C 50 % 79 % 1032,7 hPa 0,0 l/m 0,8 km/h (0 Bft) NW 315 -3,0 C 0,2 C 0,0 km/h (0 Bft)
22.03.2019 07:47 17,4 C 0,2 C -0,7 C 50 % 79 % 1032,7 hPa 0,0 l/m 0,8 km/h (0 Bft) NW 315 -3,0 C 0,2 C 0,0 km/h (0 Bft)
22.03.2019 07:46 17,4 C 0,0 C -1,0 C 50 % 79 % 1032,7 hPa 0,0 l/m 0,6 km/h (0 Bft) W 270 -3,2 C 0,0 C 0,0 km/h (0 Bft)
22.03.2019 07:45 17,4 C 0,0 C -1,0 C 50 % 79 % 1032,7 hPa 0,0 l/m 0,6 km/h (0 Bft) W 270 -3,2 C 0,0 C 0,0 km/h (0 Bft)
22.03.2019 07:44 17,2 C -0,1 C -1,1 C 50 % 79 % 1032,7 hPa 0,0 l/m 0,6 km/h (0 Bft) W 270 -3,3 C -0,1 C 2,3 km/h (1 Bft)
22.03.2019 07:43 17,2 C -0,1 C -1,1 C 50 % 79 % 1032,7 hPa 0,0 l/m 0,6 km/h (0 Bft) W 270 -3,3 C -0,1 C 2,3 km/h (1 Bft)
22.03.2019 07:42 17,2 C -0,3 C -1,4 C 50 % 79 % 1032,7 hPa 0,0 l/m 0,6 km/h (0 Bft) W 270 -3,5 C -0,3 C 2,5 km/h (1 Bft)
22.03.2019 07:41 17,2 C -0,3 C -1,4 C 50 % 79 % 1032,7 hPa 0,0 l/m 0,6 km/h (0 Bft) W 270 -3,5 C -0,3 C 2,5 km/h (1 Bft)
22.03.2019 07:40 17,2 C -0,4 C -1,2 C 50 % 79 % 1032,7 hPa 0,0 l/m 0,3 km/h (0 Bft) W-SW 247 -3,6 C -0,4 C 2,7 km/h (1 Bft)
22.03.2019 07:39 17,2 C -0,4 C -1,2 C 50 % 79 % 1032,7 hPa 0,0 l/m 0,3 km/h (0 Bft) W-SW 247 -3,6 C -0,4 C 2,7 km/h (1 Bft)
22.03.2019 07:38 17,2 C -0,5 C -1,3 C 50 % 79 % 1032,7 hPa 0,0 l/m 0,0 km/h (0 Bft) W 270 -3,7 C -0,5 C 0,0 km/h (0 Bft)
22.03.2019 07:37 17,2 C -0,5 C -1,3 C 50 % 79 % 1032,7 hPa 0,0 l/m 0,0 km/h (0 Bft) W 270 -3,7 C -0,5 C 0,0 km/h (0 Bft)
22.03.2019 07:36 17,3 C -0,7 C -1,5 C 50 % 79 % 1032,7 hPa 0,0 l/m 0,0 km/h (0 Bft) W-NW 292 -3,9 C -0,7 C 0,0 km/h (0 Bft)
22.03.2019 07:35 17,3 C -0,7 C -1,5 C 50 % 79 % 1032,7 hPa 0,0 l/m 0,0 km/h (0 Bft) W-NW 292 -3,9 C -0,7 C 0,0 km/h (0 Bft)
22.03.2019 07:34 17,3 C -1,0 C -1,7 C 50 % 79 % 1032,4 hPa 0,0 l/m 0,0 km/h (0 Bft) N 360 -4,2 C -1,0 C 0,0 km/h (0 Bft)
22.03.2019 07:33 17,3 C -1,0 C -1,7 C 50 % 79 % 1032,4 hPa 0,0 l/m 0,0 km/h (0 Bft) N 360 -4,2 C -1,0 C 0,0 km/h (0 Bft)
22.03.2019 07:32 17,2 C -1,1 C -1,9 C 50 % 79 % 1032,4 hPa 0,0 l/m 0,0 km/h (0 Bft) O 90 -4,3 C -1,1 C 0,0 km/h (0 Bft)
22.03.2019 07:31 17,2 C -1,1 C -1,9 C 50 % 79 % 1032,4 hPa 0,0 l/m 0,0 km/h (0 Bft) O 90 -4,3 C -1,1 C 0,0 km/h (0 Bft)
22.03.2019 07:30 17,2 C -1,1 C -1,9 C 50 % 79 % 1032,4 hPa 0,0 l/m 0,0 km/h (0 Bft) O-SO 112 -4,3 C -1,1 C 0,0 km/h (0 Bft)
22.03.2019 07:29 17,2 C -1,1 C -1,9 C 50 % 79 % 1032,4 hPa 0,0 l/m 0,0 km/h (0 Bft) O-SO 112 -4,3 C -1,1 C 0,0 km/h (0 Bft)
22.03.2019 07:28 17,2 C -1,2 C -1,9 C 50 % 79 % 1032,4 hPa 0,0 l/m 0,0 km/h (0 Bft) NW 315 -4,4 C -1,2 C 0,0 km/h (0 Bft)
22.03.2019 07:27 17,2 C -1,2 C -1,9 C 50 % 79 % 1032,4 hPa 0,0 l/m 0,0 km/h (0 Bft) NW 315 -4,4 C -1,2 C 0,0 km/h (0 Bft)
22.03.2019 07:26 17,2 C -1,2 C -2,0 C 50 % 79 % 1032,4 hPa 0,0 l/m 0,0 km/h (0 Bft) W 270 -4,4 C -1,2 C 0,0 km/h (0 Bft)
22.03.2019 07:25 17,2 C -1,2 C -2,0 C 50 % 79 % 1032,4 hPa 0,0 l/m 0,0 km/h (0 Bft) W 270 -4,4 C -1,2 C 0,0 km/h (0 Bft)
22.03.2019 07:24 17,2 C -1,3 C -1,9 C 50 % 79 % 1032,4 hPa 0,0 l/m 0,2 km/h (0 Bft) W-SW 247 -4,5 C -1,3 C 0,0 km/h (0 Bft)
22.03.2019 07:23 17,2 C -1,3 C -1,9 C 50 % 79 % 1032,4 hPa 0,0 l/m 0,2 km/h (0 Bft) W-SW 247 -4,5 C -1,3 C 0,0 km/h (0 Bft)
22.03.2019 07:22 17,2 C -1,3 C -2,0 C 50 % 79 % 1032,4 hPa 0,0 l/m 1,0 km/h (0 Bft) W 270 -4,5 C -1,3 C 0,0 km/h (0 Bft)
22.03.2019 07:21 17,2 C -1,3 C -2,0 C 50 % 79 % 1032,4 hPa 0,0 l/m 1,0 km/h (0 Bft) W 270 -4,5 C -1,3 C 0,0 km/h (0 Bft)
22.03.2019 07:20 17,2 C -1,5 C -2,1 C 50 % 79 % 1032,4 hPa 0,0 l/m 1,1 km/h (1 Bft) W-SW 247 -4,7 C -1,5 C 0,0 km/h (0 Bft)
22.03.2019 07:19 17,2 C -1,5 C -2,1 C 50 % 79 % 1032,4 hPa 0,0 l/m 1,1 km/h (1 Bft) W-SW 247 -4,7 C -1,5 C 0,0 km/h (0 Bft)
22.03.2019 07:18 17,1 C -1,5 C -2,3 C 50 % 79 % 1032,4 hPa 0,0 l/m 1,4 km/h (1 Bft) NW 315 -4,7 C -1,5 C 0,0 km/h (0 Bft)
22.03.2019 07:17 17,1 C -1,5 C -2,3 C 50 % 79 % 1032,4 hPa 0,0 l/m 1,4 km/h (1 Bft) NW 315 -4,7 C -1,5 C 0,0 km/h (0 Bft)
22.03.2019 07:16 17,1 C -1,6 C -2,3 C 50 % 79 % 1032,4 hPa 0,0 l/m 1,9 km/h (1 Bft) W 270 -4,8 C -1,6 C 0,0 km/h (0 Bft)
22.03.2019 07:15 17,1 C -1,6 C -2,3 C 50 % 79 % 1032,4 hPa 0,0 l/m 1,9 km/h (1 Bft) W 270 -4,8 C -1,6 C 0,0 km/h (0 Bft)
22.03.2019 07:14 17,1 C -1,6 C -2,4 C 50 % 79 % 1032,4 hPa 0,0 l/m 2,3 km/h (1 Bft) W 270 -4,8 C -1,6 C 3,6 km/h (1 Bft)
22.03.2019 07:13 17,1 C -1,6 C -2,4 C 50 % 79 % 1032,4 hPa 0,0 l/m 2,3 km/h (1 Bft) W 270 -4,8 C -1,6 C 3,6 km/h (1 Bft)
22.03.2019 07:12 17,1 C -1,7 C -2,6 C 51 % 79 % 1032,4 hPa 0,0 l/m 2,3 km/h (1 Bft) W 270 -4,8 C -1,7 C 3,8 km/h (1 Bft)
22.03.2019 07:11 17,1 C -1,7 C -2,6 C 51 % 79 % 1032,4 hPa 0,0 l/m 2,3 km/h (1 Bft) W 270 -4,8 C -1,7 C 3,8 km/h (1 Bft)
22.03.2019 07:10 17,0 C -1,9 C -2,6 C 51 % 79 % 1032,4 hPa 0,0 l/m 1,9 km/h (1 Bft) W 270 -5,0 C -1,9 C 3,3 km/h (1 Bft)
22.03.2019 07:09 17,0 C -1,9 C -2,6 C 51 % 79 % 1032,4 hPa 0,0 l/m 1,9 km/h (1 Bft) W 270 -5,0 C -1,9 C 3,3 km/h (1 Bft)
22.03.2019 07:08 17,0 C -2,0 C -2,7 C 51 % 79 % 1032,4 hPa 0,0 l/m 1,8 km/h (1 Bft) W 270 -5,1 C -2,0 C 2,9 km/h (1 Bft)
22.03.2019 07:07 17,0 C -2,0 C -2,7 C 51 % 79 % 1032,4 hPa 0,0 l/m 1,8 km/h (1 Bft) W 270 -5,1 C -2,0 C 2,9 km/h (1 Bft)
22.03.2019 07:06 17,0 C -2,1 C -2,8 C 50 % 79 % 1032,4 hPa 0,0 l/m 1,4 km/h (1 Bft) NW 315 -5,2 C -2,1 C 4,0 km/h (1 Bft)
22.03.2019 07:05 17,0 C -2,1 C -2,8 C 50 % 79 % 1032,4 hPa 0,0 l/m 1,4 km/h (1 Bft) NW 315 -5,2 C -2,1 C 4,0 km/h (1 Bft)
22.03.2019 07:04 17,0 C -2,1 C -3,0 C 51 % 78 % 1032,4 hPa 0,0 l/m 1,0 km/h (0 Bft) W 270 -5,4 C -2,1 C 3,1 km/h (1 Bft)
22.03.2019 07:03 17,0 C -2,1 C -3,0 C 51 % 78 % 1032,4 hPa 0,0 l/m 1,0 km/h (0 Bft) W 270 -5,4 C -2,1 C 3,1 km/h (1 Bft)
22.03.2019 07:02 16,9 C -2,3 C -3,1 C 51 % 78 % 1032,4 hPa 0,0 l/m 0,6 km/h (0 Bft) W 270 -5,6 C -2,3 C 3,6 km/h (1 Bft)
22.03.2019 07:01 16,9 C -2,3 C -3,1 C 51 % 78 % 1032,4 hPa 0,0 l/m 0,6 km/h (0 Bft) W 270 -5,6 C -2,3 C 3,6 km/h (1 Bft)
22.03.2019 07:00 16,9 C -2,5 C -3,2 C 51 % 78 % 1032,4 hPa 0,0 l/m 0,5 km/h (0 Bft) W 270 -5,8 C -2,5 C 3,8 km/h (1 Bft)
22.03.2019 06:59 16,9 C -2,5 C -3,2 C 51 % 78 % 1032,4 hPa 0,0 l/m 0,5 km/h (0 Bft) W 270 -5,8 C -2,5 C 3,8 km/h (1 Bft)
22.03.2019 06:58 16,9 C -2,5 C -3,4 C 51 % 78 % 1032,4 hPa 0,0 l/m 0,3 km/h (0 Bft) NW 315 -5,8 C -2,5 C 2,1 km/h (1 Bft)
22.03.2019 06:57 16,9 C -2,5 C -3,4 C 51 % 78 % 1032,4 hPa 0,0 l/m 0,3 km/h (0 Bft) NW 315 -5,8 C -2,5 C 2,1 km/h (1 Bft)
22.03.2019 06:56 16,8 C -2,8 C -3,6 C 51 % 78 % 1032,4 hPa 0,0 l/m 0,2 km/h (0 Bft) W 270 -6,1 C -2,8 C 0,0 km/h (0 Bft)
22.03.2019 06:55 16,8 C -2,8 C -3,6 C 51 % 78 % 1032,4 hPa 0,0 l/m 0,2 km/h (0 Bft) W 270 -6,1 C -2,8 C 0,0 km/h (0 Bft)
22.03.2019 06:54 16,8 C -2,8 C -3,8 C 51 % 78 % 1032,1 hPa 0,0 l/m 0,2 km/h (0 Bft) W 270 -6,1 C -2,8 C 0,0 km/h (0 Bft)
22.03.2019 06:53 16,8 C -2,8 C -3,8 C 51 % 78 % 1032,1 hPa 0,0 l/m 0,2 km/h (0 Bft) W 270 -6,1 C -2,8 C 0,0 km/h (0 Bft)
22.03.2019 06:52 16,8 C -2,8 C -3,8 C 51 % 78 % 1032,1 hPa 0,0 l/m 0,3 km/h (0 Bft) W 270 -6,1 C -2,8 C 0,0 km/h (0 Bft)
22.03.2019 06:51 16,8 C -2,8 C -3,8 C 51 % 78 % 1032,1 hPa 0,0 l/m 0,3 km/h (0 Bft) W 270 -6,1 C -2,8 C 0,0 km/h (0 Bft)
22.03.2019 06:50 16,8 C -2,8 C -3,8 C 51 % 78 % 1032,1 hPa 0,0 l/m 0,3 km/h (0 Bft) W 270 -6,1 C -2,8 C 0,0 km/h (0 Bft)
22.03.2019 06:49 16,8 C -2,8 C -3,8 C 51 % 78 % 1032,1 hPa 0,0 l/m 0,3 km/h (0 Bft) W 270 -6,1 C -2,8 C 0,0 km/h (0 Bft)
22.03.2019 06:48 16,8 C -2,8 C -3,8 C 51 % 78 % 1032,1 hPa 0,0 l/m 0,3 km/h (0 Bft) W 270 -6,1 C -2,8 C 0,0 km/h (0 Bft)
22.03.2019 06:47 16,8 C -2,8 C -3,8 C 51 % 78 % 1032,1 hPa 0,0 l/m 0,3 km/h (0 Bft) W 270 -6,1 C -2,8 C 0,0 km/h (0 Bft)
22.03.2019 06:46 16,8 C -2,8 C -3,8 C 51 % 78 % 1032,1 hPa 0,0 l/m 0,3 km/h (0 Bft) W 270 -6,1 C -2,8 C 0,0 km/h (0 Bft)
22.03.2019 06:45 16,8 C -2,8 C -3,8 C 51 % 78 % 1032,1 hPa 0,0 l/m 0,3 km/h (0 Bft) W 270 -6,1 C -2,8 C 0,0 km/h (0 Bft)
22.03.2019 06:44 16,7 C -2,7 C -3,8 C 51 % 78 % 1032,1 hPa 0,0 l/m 0,2 km/h (0 Bft) W 270 -6,0 C -2,7 C 0,0 km/h (0 Bft)
22.03.2019 06:43 16,7 C -2,7 C -3,8 C 51 % 78 % 1032,1 hPa 0,0 l/m 0,2 km/h (0 Bft) W 270 -6,0 C -2,7 C 0,0 km/h (0 Bft)
22.03.2019 06:42 16,7 C -2,7 C -3,6 C 51 % 78 % 1032,1 hPa 0,0 l/m 0,2 km/h (0 Bft) W 270 -6,0 C -2,7 C 2,9 km/h (1 Bft)
22.03.2019 06:41 16,7 C -2,7 C -3,6 C 51 % 78 % 1032,1 hPa 0,0 l/m 0,2 km/h (0 Bft) W 270 -6,0 C -2,7 C 2,9 km/h (1 Bft)
22.03.2019 06:40 16,7 C -3,0 C -3,9 C 51 % 78 % 1032,1 hPa 0,0 l/m 0,0 km/h (0 Bft) NW 315 -6,3 C -3,0 C 2,1 km/h (1 Bft)
22.03.2019 06:39 16,7 C -3,0 C -3,9 C 51 % 78 % 1032,1 hPa 0,0 l/m 0,0 km/h (0 Bft) NW 315 -6,3 C -3,0 C 2,1 km/h (1 Bft)
22.03.2019 06:38 16,6 C -3,1 C -3,9 C 50 % 78 % 1032,1 hPa 0,0 l/m 0,0 km/h (0 Bft) NW 315 -6,4 C -3,1 C 0,0 km/h (0 Bft)
22.03.2019 06:37 16,6 C -3,1 C -3,9 C 50 % 78 % 1032,1 hPa 0,0 l/m 0,0 km/h (0 Bft) NW 315 -6,4 C -3,1 C 0,0 km/h (0 Bft)
22.03.2019 06:36 16,6 C -3,1 C -4,0 C 50 % 78 % 1032,1 hPa 0,0 l/m 0,2 km/h (0 Bft) W-NW 292 -6,4 C -3,1 C 0,0 km/h (0 Bft)
22.03.2019 06:35 16,6 C -3,1 C -4,0 C 50 % 78 % 1032,1 hPa 0,0 l/m 0,2 km/h (0 Bft) W-NW 292 -6,4 C -3,1 C 0,0 km/h (0 Bft)
22.03.2019 06:34 16,6 C -3,2 C -4,0 C 50 % 78 % 1031,8 hPa 0,0 l/m 0,3 km/h (0 Bft) W 270 -6,5 C -3,2 C 0,0 km/h (0 Bft)
22.03.2019 06:33 16,6 C -3,2 C -4,0 C 50 % 78 % 1031,8 hPa 0,0 l/m 0,3 km/h (0 Bft) W 270 -6,5 C -3,2 C 0,0 km/h (0 Bft)
22.03.2019 06:32 16,6 C -3,2 C -4,0 C 50 % 78 % 1031,8 hPa 0,0 l/m 0,5 km/h (0 Bft) W-NW 292 -6,5 C -3,2 C 0,0 km/h (0 Bft)
22.03.2019 06:31 16,6 C -3,2 C -4,0 C 50 % 78 % 1031,8 hPa 0,0 l/m 0,5 km/h (0 Bft) W-NW 292 -6,5 C -3,2 C 0,0 km/h (0 Bft)
22.03.2019 06:30 16,5 C -3,2 C -4,2 C 50 % 78 % 1031,8 hPa 0,0 l/m 0,6 km/h (0 Bft) W 270 -6,5 C -3,2 C 0,0 km/h (0 Bft)
22.03.2019 06:29 16,5 C -3,2 C -4,2 C 50 % 78 % 1031,8 hPa 0,0 l/m 0,6 km/h (0 Bft) W 270 -6,5 C -3,2 C 0,0 km/h (0 Bft)
22.03.2019 06:28 16,5 C -3,2 C -4,3 C 50 % 78 % 1031,8 hPa 0,0 l/m 0,5 km/h (0 Bft) W 270 -6,5 C -3,2 C 0,0 km/h (0 Bft)
22.03.2019 06:27 16,5 C -3,2 C -4,3 C 50 % 78 % 1031,8 hPa 0,0 l/m 0,5 km/h (0 Bft) W 270 -6,5 C -3,2 C 0,0 km/h (0 Bft)
22.03.2019 06:26 16,5 C -3,2 C -4,3 C 50 % 78 % 1031,8 hPa 0,0 l/m 0,5 km/h (0 Bft) W 270 -6,5 C -3,2 C 2,3 km/h (1 Bft)
22.03.2019 06:25 16,5 C -3,2 C -4,3 C 50 % 78 % 1031,8 hPa 0,0 l/m 0,5 km/h (0 Bft) W 270 -6,5 C -3,2 C 2,3 km/h (1 Bft)
22.03.2019 06:24 16,5 C -3,2 C -4,3 C 50 % 78 % 1031,8 hPa 0,0 l/m 0,3 km/h (0 Bft) W-SW 247 -6,5 C -3,2 C 0,0 km/h (0 Bft)
22.03.2019 06:23 16,5 C -3,2 C -4,3 C 50 % 78 % 1031,8 hPa 0,0 l/m 0,3 km/h (0 Bft) W-SW 247 -6,5 C -3,2 C 0,0 km/h (0 Bft)
22.03.2019 06:22 16,5 C -3,1 C -4,4 C 50 % 78 % 1031,8 hPa 0,0 l/m 0,3 km/h (0 Bft) W 270 -6,4 C -3,1 C 0,0 km/h (0 Bft)
22.03.2019 06:21 16,5 C -3,1 C -4,4 C 50 % 78 % 1031,8 hPa 0,0 l/m 0,3 km/h (0 Bft) W 270 -6,4 C -3,1 C 0,0 km/h (0 Bft)
22.03.2019 06:20 16,5 C -3,1 C -4,2 C 50 % 78 % 1031,8 hPa 0,0 l/m 0,3 km/h (0 Bft) W-SW 247 -6,4 C -3,1 C 2,3 km/h (1 Bft)
22.03.2019 06:19 16,5 C -3,1 C -4,2 C 50 % 78 % 1031,8 hPa 0,0 l/m 0,3 km/h (0 Bft) W-SW 247 -6,4 C -3,1 C 2,3 km/h (1 Bft)
22.03.2019 06:18 16,5 C -3,0 C -3,9 C 50 % 78 % 1031,8 hPa 0,0 l/m 0,5 km/h (0 Bft) W 270 -6,3 C -3,0 C 0,0 km/h (0 Bft)
22.03.2019 06:17 16,5 C -3,0 C -3,9 C 50 % 78 % 1031,8 hPa 0,0 l/m 0,5 km/h (0 Bft) W 270 -6,3 C -3,0 C 0,0 km/h (0 Bft)
22.03.2019 06:16 16,4 C -3,0 C -3,8 C 50 % 78 % 1031,8 hPa 0,0 l/m 0,5 km/h (0 Bft) N-NW 337 -6,3 C -3,0 C 0,0 km/h (0 Bft)
22.03.2019 06:15 16,4 C -3,0 C -3,8 C 50 % 78 % 1031,8 hPa 0,0 l/m 0,5 km/h (0 Bft) N-NW 337 -6,3 C -3,0 C 0,0 km/h (0 Bft)
22.03.2019 06:14 16,4 C -3,1 C -3,8 C 50 % 78 % 1031,8 hPa 0,0 l/m 0,5 km/h (0 Bft) NW 315 -6,4 C -3,1 C 0,0 km/h (0 Bft)
22.03.2019 06:13 16,4 C -3,1 C -3,8 C 50 % 78 % 1031,8 hPa 0,0 l/m 0,5 km/h (0 Bft) NW 315 -6,4 C -3,1 C 0,0 km/h (0 Bft)
22.03.2019 06:12 16,4 C -3,2 C -4,2 C 50 % 78 % 1031,8 hPa 0,0 l/m 0,5 km/h (0 Bft) NW 315 -6,5 C -3,2 C 2,3 km/h (1 Bft)
22.03.2019 06:11 16,4 C -3,2 C -4,2 C 50 % 78 % 1031,8 hPa 0,0 l/m 0,5 km/h (0 Bft) NW 315 -6,5 C -3,2 C 2,3 km/h (1 Bft)
22.03.2019 06:10 16,4 C -3,2 C -4,4 C 50 % 78 % 1031,8 hPa 0,0 l/m 0,3 km/h (0 Bft) NW 315 -6,5 C -3,2 C 0,0 km/h (0 Bft)
22.03.2019 06:09 16,4 C -3,2 C -4,4 C 50 % 78 % 1031,8 hPa 0,0 l/m 0,3 km/h (0 Bft) NW 315 -6,5 C -3,2 C 0,0 km/h (0 Bft)
22.03.2019 06:08 16,4 C -3,1 C -4,3 C 50 % 78 % 1031,8 hPa 0,0 l/m 0,5 km/h (0 Bft) W 270 -6,4 C -3,1 C 2,7 km/h (1 Bft)
22.03.2019 06:07 16,4 C -3,1 C -4,3 C 50 % 78 % 1031,8 hPa 0,0 l/m 0,5 km/h (0 Bft) W 270 -6,4 C -3,1 C 2,7 km/h (1 Bft)
22.03.2019 06:06 16,4 C -3,1 C -4,2 C 50 % 78 % 1031,8 hPa 0,0 l/m 0,5 km/h (0 Bft) W 270 -6,4 C -3,1 C 0,0 km/h (0 Bft)
22.03.2019 06:05 16,4 C -3,1 C -4,2 C 50 % 78 % 1031,8 hPa 0,0 l/m 0,5 km/h (0 Bft) W 270 -6,4 C -3,1 C 0,0 km/h (0 Bft)
22.03.2019 06:04 16,4 C -3,4 C -4,3 C 50 % 77 % 1031,8 hPa 0,0 l/m 0,6 km/h (0 Bft) N-NW 337 -6,8 C -3,4 C 2,1 km/h (1 Bft)
22.03.2019 06:03 16,4 C -3,4 C -4,3 C 50 % 77 % 1031,8 hPa 0,0 l/m 0,6 km/h (0 Bft) N-NW 337 -6,8 C -3,4 C 2,1 km/h (1 Bft)
22.03.2019 06:02 16,4 C -3,4 C -4,3 C 50 % 77 % 1031,8 hPa 0,0 l/m 0,6 km/h (0 Bft) N-NW 337 -6,8 C -3,4 C 2,1 km/h (1 Bft)
22.03.2019 06:01 16,4 C -3,4 C -4,3 C 50 % 77 % 1031,8 hPa 0,0 l/m 0,6 km/h (0 Bft) N-NW 337 -6,8 C -3,4 C 2,1 km/h (1 Bft)
22.03.2019 06:00 16,4 C -3,4 C -4,6 C 50 % 77 % 1031,8 hPa 0,0 l/m 0,6 km/h (0 Bft) W 270 -6,8 C -3,4 C 2,7 km/h (1 Bft)
22.03.2019 05:59 16,4 C -3,4 C -4,6 C 50 % 77 % 1031,8 hPa 0,0 l/m 0,6 km/h (0 Bft) W 270 -6,8 C -3,4 C 2,7 km/h (1 Bft)
22.03.2019 05:58 16,4 C -3,4 C -4,6 C 50 % 77 % 1031,8 hPa 0,0 l/m 0,5 km/h (0 Bft) W-SW 247 -6,8 C -3,4 C 0,0 km/h (0 Bft)
22.03.2019 05:57 16,4 C -3,4 C -4,6 C 50 % 77 % 1031,8 hPa 0,0 l/m 0,5 km/h (0 Bft) W-SW 247 -6,8 C -3,4 C 0,0 km/h (0 Bft)
22.03.2019 05:56 16,4 C -3,4 C -4,6 C 50 % 77 % 1031,8 hPa 0,0 l/m 0,3 km/h (0 Bft) W-SW 247 -6,8 C -3,4 C 2,5 km/h (1 Bft)
22.03.2019 05:55 16,4 C -3,4 C -4,6 C 50 % 77 % 1031,8 hPa 0,0 l/m 0,3 km/h (0 Bft) W-SW 247 -6,8 C -3,4 C 2,5 km/h (1 Bft)
22.03.2019 05:54 16,4 C -3,4 C -4,6 C 50 % 77 % 1031,9 hPa 0,0 l/m 0,0 km/h (0 Bft) W 270 -6,8 C -3,4 C 0,0 km/h (0 Bft)
22.03.2019 05:53 16,4 C -3,4 C -4,6 C 50 % 77 % 1031,9 hPa 0,0 l/m 0,0 km/h (0 Bft) W 270 -6,8 C -3,4 C 0,0 km/h (0 Bft)
22.03.2019 05:52 16,4 C -3,2 C -4,4 C 49 % 77 % 1031,9 hPa 0,0 l/m 0,0 km/h (0 Bft) W 270 -6,6 C -3,2 C 0,0 km/h (0 Bft)
22.03.2019 05:51 16,4 C -3,2 C -4,4 C 49 % 77 % 1031,9 hPa 0,0 l/m 0,0 km/h (0 Bft) W 270 -6,6 C -3,2 C 0,0 km/h (0 Bft)
22.03.2019 05:50 16,5 C -3,2 C -4,4 C 49 % 77 % 1031,9 hPa 0,0 l/m 0,2 km/h (0 Bft) W 270 -6,6 C -3,2 C 0,0 km/h (0 Bft)
22.03.2019 05:49 16,5 C -3,2 C -4,4 C 49 % 77 % 1031,9 hPa 0,0 l/m 0,2 km/h (0 Bft) W 270 -6,6 C -3,2 C 0,0 km/h (0 Bft)
22.03.2019 05:48 16,5 C -3,1 C -4,3 C 49 % 77 % 1031,9 hPa 0,0 l/m 0,3 km/h (0 Bft) O-NO 67 -6,5 C -3,1 C 0,0 km/h (0 Bft)
22.03.2019 05:47 16,5 C -3,1 C -4,3 C 49 % 77 % 1031,9 hPa 0,0 l/m 0,3 km/h (0 Bft) O-NO 67 -6,5 C -3,1 C 0,0 km/h (0 Bft)
22.03.2019 05:46 16,5 C -3,1 C -4,2 C 49 % 77 % 1031,9 hPa 0,0 l/m 0,3 km/h (0 Bft) N-NW 337 -6,5 C -3,1 C 0,0 km/h (0 Bft)
22.03.2019 05:45 16,5 C -3,1 C -4,2 C 49 % 77 % 1031,9 hPa 0,0 l/m 0,3 km/h (0 Bft) N-NW 337 -6,5 C -3,1 C 0,0 km/h (0 Bft)
22.03.2019 05:44 16,5 C -3,0 C -4,2 C 49 % 77 % 1031,9 hPa 0,0 l/m 0,6 km/h (0 Bft) O-NO 67 -6,4 C -3,0 C 0,0 km/h (0 Bft)
22.03.2019 05:43 16,5 C -3,0 C -4,2 C 49 % 77 % 1031,9 hPa 0,0 l/m 0,6 km/h (0 Bft) O-NO 67 -6,4 C -3,0 C 0,0 km/h (0 Bft)
22.03.2019 05:42 16,5 C -3,0 C -3,9 C 49 % 77 % 1031,9 hPa 0,0 l/m 0,6 km/h (0 Bft) NW 315 -6,4 C -3,0 C 0,0 km/h (0 Bft)
22.03.2019 05:41 16,5 C -3,0 C -3,9 C 49 % 77 % 1031,9 hPa 0,0 l/m 0,6 km/h (0 Bft) NW 315 -6,4 C -3,0 C 0,0 km/h (0 Bft)
22.03.2019 05:40 16,5 C -3,0 C -4,0 C 49 % 77 % 1031,9 hPa 0,0 l/m 0,6 km/h (0 Bft) N-NW 337 -6,4 C -3,0 C 0,0 km/h (0 Bft)
22.03.2019 05:39 16,5 C -3,0 C -4,0 C 49 % 77 % 1031,9 hPa 0,0 l/m 0,6 km/h (0 Bft) N-NW 337 -6,4 C -3,0 C 0,0 km/h (0 Bft)
22.03.2019 05:38 16,5 C -3,1 C -4,2 C 49 % 77 % 1031,9 hPa 0,0 l/m 0,6 km/h (0 Bft) W 270 -6,5 C -3,1 C 2,7 km/h (1 Bft)
22.03.2019 05:37 16,5 C -3,1 C -4,2 C 49 % 77 % 1031,9 hPa 0,0 l/m 0,6 km/h (0 Bft) W 270 -6,5 C -3,1 C 2,7 km/h (1 Bft)
22.03.2019 05:36 16,5 C -3,1 C -4,2 C 49 % 77 % 1031,9 hPa 0,0 l/m 0,3 km/h (0 Bft) W-NW 292 -6,5 C -3,1 C 0,0 km/h (0 Bft)
22.03.2019 05:35 16,5 C -3,1 C -4,2 C 49 % 77 % 1031,9 hPa 0,0 l/m 0,3 km/h (0 Bft) W-NW 292 -6,5 C -3,1 C 0,0 km/h (0 Bft)
22.03.2019 05:34 16,5 C -3,2 C -4,3 C 49 % 77 % 1031,6 hPa 0,0 l/m 0,2 km/h (0 Bft) W 270 -6,6 C -3,2 C 0,0 km/h (0 Bft)
22.03.2019 05:33 16,5 C -3,2 C -4,3 C 49 % 77 % 1031,6 hPa 0,0 l/m 0,2 km/h (0 Bft) W 270 -6,6 C -3,2 C 0,0 km/h (0 Bft)
22.03.2019 05:32 16,5 C -3,2 C -4,4 C 49 % 77 % 1031,6 hPa 0,0 l/m 0,2 km/h (0 Bft) W 270 -6,6 C -3,2 C 0,0 km/h (0 Bft)
22.03.2019 05:31 16,5 C -3,2 C -4,4 C 49 % 77 % 1031,6 hPa 0,0 l/m 0,2 km/h (0 Bft) W 270 -6,6 C -3,2 C 0,0 km/h (0 Bft)
22.03.2019 05:30 16,5 C -3,4 C -4,4 C 49 % 77 % 1031,6 hPa 0,0 l/m 0,2 km/h (0 Bft) W 270 -6,8 C -3,4 C 0,0 km/h (0 Bft)
22.03.2019 05:29 16,5 C -3,4 C -4,4 C 49 % 77 % 1031,6 hPa 0,0 l/m 0,2 km/h (0 Bft) W 270 -6,8 C -3,4 C 0,0 km/h (0 Bft)
22.03.2019 05:28 16,5 C -3,4 C -4,4 C 49 % 77 % 1031,6 hPa 0,0 l/m 0,0 km/h (0 Bft) W 270 -6,8 C -3,4 C 2,1 km/h (1 Bft)
22.03.2019 05:27 16,5 C -3,4 C -4,4 C 49 % 77 % 1031,6 hPa 0,0 l/m 0,0 km/h (0 Bft) W 270 -6,8 C -3,4 C 2,1 km/h (1 Bft)
22.03.2019 05:26 16,5 C -3,2 C -4,4 C 49 % 77 % 1031,6 hPa 0,0 l/m 0,0 km/h (0 Bft) W 270 -6,6 C -3,2 C 0,0 km/h (0 Bft)
22.03.2019 05:25 16,5 C -3,2 C -4,4 C 49 % 77 % 1031,6 hPa 0,0 l/m 0,0 km/h (0 Bft) W 270 -6,6 C -3,2 C 0,0 km/h (0 Bft)
22.03.2019 05:24 16,5 C -3,2 C -4,4 C 49 % 77 % 1031,6 hPa 0,0 l/m 0,0 km/h (0 Bft) W 270 -6,6 C -3,2 C 0,0 km/h (0 Bft)
22.03.2019 05:23 16,5 C -3,2 C -4,4 C 49 % 77 % 1031,6 hPa 0,0 l/m 0,0 km/h (0 Bft) W 270 -6,6 C -3,2 C 0,0 km/h (0 Bft)
22.03.2019 05:22 16,6 C -3,1 C -4,4 C 49 % 77 % 1031,6 hPa 0,0 l/m 0,3 km/h (0 Bft) NW 315 -6,5 C -3,1 C 0,0 km/h (0 Bft)
22.03.2019 05:21 16,6 C -3,1 C -4,4 C 49 % 77 % 1031,6 hPa 0,0 l/m 0,3 km/h (0 Bft) NW 315 -6,5 C -3,1 C 0,0 km/h (0 Bft)
22.03.2019 05:20 16,6 C -3,0 C -4,4 C 49 % 77 % 1031,6 hPa 0,0 l/m 0,5 km/h (0 Bft) W 270 -6,4 C -3,0 C 0,0 km/h (0 Bft)
22.03.2019 05:19 16,6 C -3,0 C -4,4 C 49 % 77 % 1031,6 hPa 0,0 l/m 0,5 km/h (0 Bft) W 270 -6,4 C -3,0 C 0,0 km/h (0 Bft)
22.03.2019 05:18 16,6 C -3,0 C -4,3 C 49 % 77 % 1031,6 hPa 0,0 l/m 0,5 km/h (0 Bft) W 270 -6,4 C -3,0 C 0,0 km/h (0 Bft)
22.03.2019 05:17 16,6 C -3,0 C -4,3 C 49 % 77 % 1031,6 hPa 0,0 l/m 0,5 km/h (0 Bft) W 270 -6,4 C -3,0 C 0,0 km/h (0 Bft)
22.03.2019 05:16 16,6 C -3,0 C -3,9 C 49 % 77 % 1031,6 hPa 0,0 l/m 1,0 km/h (0 Bft) W-NW 292 -6,4 C -3,0 C 0,0 km/h (0 Bft)
22.03.2019 05:15 16,6 C -3,0 C -3,9 C 49 % 77 % 1031,6 hPa 0,0 l/m 1,0 km/h (0 Bft) W-NW 292 -6,4 C -3,0 C 0,0 km/h (0 Bft)
22.03.2019 05:14 16,6 C -3,1 C -3,9 C 49 % 77 % 1031,7 hPa 0,0 l/m 1,1 km/h (1 Bft) W 270 -6,5 C -3,1 C 0,0 km/h (0 Bft)
22.03.2019 05:13 16,6 C -3,1 C -3,9 C 49 % 77 % 1031,7 hPa 0,0 l/m 1,1 km/h (1 Bft) W 270 -6,5 C -3,1 C 0,0 km/h (0 Bft)
22.03.2019 05:12 16,6 C -3,1 C -4,3 C 49 % 77 % 1031,7 hPa 0,0 l/m 1,0 km/h (0 Bft) W 270 -6,5 C -3,1 C 2,7 km/h (1 Bft)
22.03.2019 05:11 16,6 C -3,1 C -4,3 C 49 % 77 % 1031,7 hPa 0,0 l/m 1,0 km/h (0 Bft) W 270 -6,5 C -3,1 C 2,7 km/h (1 Bft)
22.03.2019 05:10 16,6 C -3,1 C -4,4 C 49 % 77 % 1031,7 hPa 0,0 l/m 1,0 km/h (0 Bft) W 270 -6,5 C -3,1 C 0,0 km/h (0 Bft)
22.03.2019 05:09 16,6 C -3,1 C -4,4 C 49 % 77 % 1031,7 hPa 0,0 l/m 1,0 km/h (0 Bft) W 270 -6,5 C -3,1 C 0,0 km/h (0 Bft)
22.03.2019 05:08 16,6 C -3,1 C -4,4 C 49 % 77 % 1031,7 hPa 0,0 l/m 1,0 km/h (0 Bft) W 270 -6,5 C -3,1 C 0,0 km/h (0 Bft)
22.03.2019 05:07 16,6 C -3,1 C -4,4 C 49 % 77 % 1031,7 hPa 0,0 l/m 1,0 km/h (0 Bft) W 270 -6,5 C -3,1 C 0,0 km/h (0 Bft)
22.03.2019 05:06 16,6 C -3,0 C -4,3 C 49 % 77 % 1031,7 hPa 0,0 l/m 0,8 km/h (0 Bft) W-SW 247 -6,4 C -3,0 C 3,6 km/h (1 Bft)
22.03.2019 05:05 16,6 C -3,0 C -4,3 C 49 % 77 % 1031,7 hPa 0,0 l/m 0,8 km/h (0 Bft) W-SW 247 -6,4 C -3,0 C 3,6 km/h (1 Bft)
22.03.2019 05:04 16,6 C -3,0 C -4,3 C 49 % 77 % 1031,7 hPa 0,0 l/m 0,5 km/h (0 Bft) W-NW 292 -6,4 C -3,0 C 0,0 km/h (0 Bft)
22.03.2019 05:03 16,6 C -3,0 C -4,3 C 49 % 77 % 1031,7 hPa 0,0 l/m 0,5 km/h (0 Bft) W-NW 292 -6,4 C -3,0 C 0,0 km/h (0 Bft)
22.03.2019 05:02 16,6 C -3,0 C -4,2 C 49 % 77 % 1031,7 hPa 0,0 l/m 0,5 km/h (0 Bft) W 270 -6,4 C -3,0 C 2,3 km/h (1 Bft)
22.03.2019 05:01 16,6 C -3,0 C -4,2 C 49 % 77 % 1031,7 hPa 0,0 l/m 0,5 km/h (0 Bft) W 270 -6,4 C -3,0 C 2,3 km/h (1 Bft)
22.03.2019 05:00 16,6 C -3,1 C -4,3 C 49 % 77 % 1031,7 hPa 0,0 l/m 0,3 km/h (0 Bft) W 270 -6,5 C -3,1 C 2,1 km/h (1 Bft)
22.03.2019 04:59 16,6 C -3,1 C -4,3 C 49 % 77 % 1031,7 hPa 0,0 l/m 0,3 km/h (0 Bft) W 270 -6,5 C -3,1 C 2,1 km/h (1 Bft)
22.03.2019 04:58 16,6 C -3,1 C -4,3 C 49 % 77 % 1031,7 hPa 0,0 l/m 0,2 km/h (0 Bft) W 270 -6,5 C -3,1 C 0,0 km/h (0 Bft)
22.03.2019 04:57 16,6 C -3,1 C -4,3 C 49 % 77 % 1031,7 hPa 0,0 l/m 0,2 km/h (0 Bft) W 270 -6,5 C -3,1 C 0,0 km/h (0 Bft)
22.03.2019 04:56 16,6 C -3,2 C -4,3 C 49 % 77 % 1031,7 hPa 0,0 l/m 0,0 km/h (0 Bft) W 270 -6,6 C -3,2 C 0,0 km/h (0 Bft)
22.03.2019 04:55 16,6 C -3,2 C -4,3 C 49 % 77 % 1031,7 hPa 0,0 l/m 0,0 km/h (0 Bft) W 270 -6,6 C -3,2 C 0,0 km/h (0 Bft)
22.03.2019 04:54 16,6 C -3,1 C -4,2 C 49 % 77 % 1031,8 hPa 0,0 l/m 0,2 km/h (0 Bft) W 270 -6,5 C -3,1 C 0,0 km/h (0 Bft)
22.03.2019 04:53 16,6 C -3,1 C -4,2 C 49 % 77 % 1031,8 hPa 0,0 l/m 0,2 km/h (0 Bft) W 270 -6,5 C -3,1 C 0,0 km/h (0 Bft)
22.03.2019 04:52 16,6 C -3,1 C -4,2 C 49 % 77 % 1031,8 hPa 0,0 l/m 0,2 km/h (0 Bft) W-NW 292 -6,5 C -3,1 C 0,0 km/h (0 Bft)
22.03.2019 04:51 16,6 C -3,1 C -4,2 C 49 % 77 % 1031,8 hPa 0,0 l/m 0,2 km/h (0 Bft) W-NW 292 -6,5 C -3,1 C 0,0 km/h (0 Bft)
22.03.2019 04:50 16,7 C -3,1 C -4,3 C 50 % 77 % 1031,8 hPa 0,0 l/m 0,2 km/h (0 Bft) W-NW 292 -6,5 C -3,1 C 0,0 km/h (0 Bft)
22.03.2019 04:49 16,7 C -3,1 C -4,3 C 50 % 77 % 1031,8 hPa 0,0 l/m 0,2 km/h (0 Bft) W-NW 292 -6,5 C -3,1 C 0,0 km/h (0 Bft)
22.03.2019 04:48 16,6 C -2,8 C -4,3 C 49 % 77 % 1031,8 hPa 0,0 l/m 0,2 km/h (0 Bft) W-NW 292 -6,3 C -2,8 C 0,0 km/h (0 Bft)
22.03.2019 04:47 16,6 C -2,8 C -4,3 C 49 % 77 % 1031,8 hPa 0,0 l/m 0,2 km/h (0 Bft) W-NW 292 -6,3 C -2,8 C 0,0 km/h (0 Bft)
22.03.2019 04:46 16,7 C -2,8 C -4,2 C 49 % 77 % 1031,8 hPa 0,0 l/m 0,2 km/h (0 Bft) W 270 -6,3 C -2,8 C 0,0 km/h (0 Bft)
22.03.2019 04:45 16,7 C -2,8 C -4,2 C 49 % 77 % 1031,8 hPa 0,0 l/m 0,2 km/h (0 Bft) W 270 -6,3 C -2,8 C 0,0 km/h (0 Bft)
22.03.2019 04:44 16,7 C -2,7 C -4,2 C 50 % 77 % 1031,8 hPa 0,0 l/m 0,2 km/h (0 Bft) W 270 -6,2 C -2,7 C 2,3 km/h (1 Bft)
22.03.2019 04:43 16,7 C -2,7 C -4,2 C 50 % 77 % 1031,8 hPa 0,0 l/m 0,2 km/h (0 Bft) W 270 -6,2 C -2,7 C 2,3 km/h (1 Bft)
22.03.2019 04:42 16,7 C -2,5 C -3,8 C 50 % 77 % 1031,8 hPa 0,0 l/m 0,3 km/h (0 Bft) NW 315 -6,0 C -2,5 C 0,0 km/h (0 Bft)
22.03.2019 04:41 16,7 C -2,5 C -3,8 C 50 % 77 % 1031,8 hPa 0,0 l/m 0,3 km/h (0 Bft) NW 315 -6,0 C -2,5 C 0,0 km/h (0 Bft)
22.03.2019 04:40 16,7 C -2,5 C -3,5 C 50 % 77 % 1031,8 hPa 0,0 l/m 0,6 km/h (0 Bft) NW 315 -6,0 C -2,5 C 0,0 km/h (0 Bft)
22.03.2019 04:39 16,7 C -2,5 C -3,5 C 50 % 77 % 1031,8 hPa 0,0 l/m 0,6 km/h (0 Bft) NW 315 -6,0 C -2,5 C 0,0 km/h (0 Bft)
22.03.2019 04:38 16,7 C -2,7 C -3,9 C 50 % 77 % 1031,8 hPa 0,0 l/m 1,0 km/h (0 Bft) W 270 -6,2 C -2,7 C 0,0 km/h (0 Bft)
22.03.2019 04:37 16,7 C -2,7 C -3,9 C 50 % 77 % 1031,8 hPa 0,0 l/m 1,0 km/h (0 Bft) W 270 -6,2 C -2,7 C 0,0 km/h (0 Bft)
22.03.2019 04:36 16,7 C -2,7 C -4,1 C 49 % 77 % 1031,8 hPa 0,0 l/m 1,4 km/h (1 Bft) W-NW 292 -6,2 C -2,7 C 0,0 km/h (0 Bft)
22.03.2019 04:35 16,7 C -2,7 C -4,1 C 49 % 77 % 1031,8 hPa 0,0 l/m 1,4 km/h (1 Bft) W-NW 292 -6,2 C -2,7 C 0,0 km/h (0 Bft)
22.03.2019 04:34 16,7 C -2,5 C -4,2 C 50 % 77 % 1031,9 hPa 0,0 l/m 1,6 km/h (1 Bft) W 270 -6,0 C -2,5 C 0,0 km/h (0 Bft)
22.03.2019 04:33 16,7 C -2,5 C -4,2 C 50 % 77 % 1031,9 hPa 0,0 l/m 1,6 km/h (1 Bft) W 270 -6,0 C -2,5 C 0,0 km/h (0 Bft)
22.03.2019 04:32 16,7 C -2,4 C -4,1 C 50 % 77 % 1031,9 hPa 0,0 l/m 1,9 km/h (1 Bft) W 270 -5,9 C -2,4 C 2,7 km/h (1 Bft)
22.03.2019 04:31 16,7 C -2,4 C -4,1 C 50 % 77 % 1031,9 hPa 0,0 l/m 1,9 km/h (1 Bft) W 270 -5,9 C -2,4 C 2,7 km/h (1 Bft)
22.03.2019 04:30 16,8 C -2,3 C -3,5 C 49 % 77 % 1031,9 hPa 0,0 l/m 2,1 km/h (1 Bft) W 270 -5,8 C -2,3 C 4,0 km/h (1 Bft)
22.03.2019 04:29 16,8 C -2,3 C -3,5 C 49 % 77 % 1031,9 hPa 0,0 l/m 2,1 km/h (1 Bft) W 270 -5,8 C -2,3 C 4,0 km/h (1 Bft)
22.03.2019 04:28 16,8 C -2,3 C -3,1 C 49 % 77 % 1031,9 hPa 0,0 l/m 2,4 km/h (1 Bft) NW 315 -5,8 C -2,3 C 3,3 km/h (1 Bft)
22.03.2019 04:27 16,8 C -2,3 C -3,1 C 49 % 77 % 1031,9 hPa 0,0 l/m 2,4 km/h (1 Bft) NW 315 -5,8 C -2,3 C 3,3 km/h (1 Bft)
22.03.2019 04:26 16,8 C -2,5 C -3,5 C 49 % 77 % 1031,9 hPa 0,0 l/m 2,4 km/h (1 Bft) NW 315 -6,0 C -2,5 C 2,9 km/h (1 Bft)
22.03.2019 04:25 16,8 C -2,5 C -3,5 C 49 % 77 % 1031,9 hPa 0,0 l/m 2,4 km/h (1 Bft) NW 315 -6,0 C -2,5 C 2,9 km/h (1 Bft)
22.03.2019 04:24 16,8 C -2,5 C -3,8 C 49 % 77 % 1031,9 hPa 0,0 l/m 2,7 km/h (1 Bft) W 270 -6,0 C -2,5 C 2,7 km/h (1 Bft)
22.03.2019 04:23 16,8 C -2,5 C -3,8 C 49 % 77 % 1031,9 hPa 0,0 l/m 2,7 km/h (1 Bft) W 270 -6,0 C -2,5 C 2,7 km/h (1 Bft)
22.03.2019 04:22 16,8 C -2,5 C -3,8 C 49 % 77 % 1031,9 hPa 0,0 l/m 2,3 km/h (1 Bft) NW 315 -6,0 C -2,5 C 4,0 km/h (1 Bft)
22.03.2019 04:21 16,8 C -2,5 C -3,8 C 49 % 77 % 1031,9 hPa 0,0 l/m 2,3 km/h (1 Bft) NW 315 -6,0 C -2,5 C 4,0 km/h (1 Bft)
22.03.2019 04:20 16,8 C -2,7 C -3,9 C 49 % 77 % 1031,9 hPa 0,0 l/m 1,8 km/h (1 Bft) W 270 -6,2 C -2,7 C 4,0 km/h (1 Bft)
22.03.2019 04:19 16,8 C -2,7 C -3,9 C 49 % 77 % 1031,9 hPa 0,0 l/m 1,8 km/h (1 Bft) W 270 -6,2 C -2,7 C 4,0 km/h (1 Bft)
22.03.2019 04:18 16,8 C -2,7 C -4,2 C 49 % 77 % 1031,9 hPa 0,0 l/m 1,3 km/h (1 Bft) W 270 -6,2 C -2,7 C 4,8 km/h (1 Bft)
22.03.2019 04:17 16,8 C -2,7 C -4,2 C 49 % 77 % 1031,9 hPa 0,0 l/m 1,3 km/h (1 Bft) W 270 -6,2 C -2,7 C 4,8 km/h (1 Bft)
22.03.2019 04:16 16,8 C -2,8 C -4,2 C 49 % 77 % 1031,9 hPa 0,0 l/m 0,8 km/h (0 Bft) W 270 -6,3 C -2,8 C 3,8 km/h (1 Bft)
22.03.2019 04:15 16,8 C -2,8 C -4,2 C 49 % 77 % 1031,9 hPa 0,0 l/m 0,8 km/h (0 Bft) W 270 -6,3 C -2,8 C 3,8 km/h (1 Bft)
22.03.2019 04:14 16,8 C -2,8 C -4,2 C 49 % 77 % 1031,9 hPa 0,0 l/m 0,3 km/h (0 Bft) W-NW 292 -6,3 C -2,8 C 4,0 km/h (1 Bft)
22.03.2019 04:13 16,8 C -2,8 C -4,2 C 49 % 77 % 1031,9 hPa 0,0 l/m 0,3 km/h (0 Bft) W-NW 292 -6,3 C -2,8 C 4,0 km/h (1 Bft)
22.03.2019 04:12 16,8 C -2,7 C -4,2 C 49 % 77 % 1031,9 hPa 0,0 l/m 0,0 km/h (0 Bft) W 270 -6,2 C -2,7 C 0,0 km/h (0 Bft)
22.03.2019 04:11 16,8 C -2,7 C -4,2 C 49 % 77 % 1031,9 hPa 0,0 l/m 0,0 km/h (0 Bft) W 270 -6,2 C -2,7 C 0,0 km/h (0 Bft)
22.03.2019 04:10 16,8 C -2,7 C -4,2 C 49 % 77 % 1031,9 hPa 0,0 l/m 0,2 km/h (0 Bft) W-NW 292 -6,2 C -2,7 C 0,0 km/h (0 Bft)
22.03.2019 04:09 16,8 C -2,7 C -4,2 C 49 % 77 % 1031,9 hPa 0,0 l/m 0,2 km/h (0 Bft) W-NW 292 -6,2 C -2,7 C 0,0 km/h (0 Bft)
22.03.2019 04:08 16,8 C -2,5 C -4,1 C 49 % 77 % 1031,9 hPa 0,0 l/m 0,5 km/h (0 Bft) W-NW 292 -6,0 C -2,5 C 0,0 km/h (0 Bft)
22.03.2019 04:07 16,8 C -2,5 C -4,1 C 49 % 77 % 1031,9 hPa 0,0 l/m 0,5 km/h (0 Bft) W-NW 292 -6,0 C -2,5 C 0,0 km/h (0 Bft)
22.03.2019 04:06 16,8 C -2,5 C -3,9 C 49 % 77 % 1031,9 hPa 0,0 l/m 1,0 km/h (0 Bft) NW 315 -6,0 C -2,5 C 2,1 km/h (1 Bft)
22.03.2019 04:05 16,8 C -2,5 C -3,9 C 49 % 77 % 1031,9 hPa 0,0 l/m 1,0 km/h (0 Bft) NW 315 -6,0 C -2,5 C 2,1 km/h (1 Bft)
22.03.2019 04:04 16,8 C -2,4 C -3,9 C 49 % 77 % 1031,9 hPa 0,0 l/m 1,4 km/h (1 Bft) W-NW 292 -5,9 C -2,4 C 0,0 km/h (0 Bft)
22.03.2019 04:03 16,8 C -2,4 C -3,9 C 49 % 77 % 1031,9 hPa 0,0 l/m 1,4 km/h (1 Bft) W-NW 292 -5,9 C -2,4 C 0,0 km/h (0 Bft)
22.03.2019 04:02 16,8 C -2,4 C -3,9 C 49 % 77 % 1031,9 hPa 0,0 l/m 1,6 km/h (1 Bft) W-NW 292 -5,9 C -2,4 C 0,0 km/h (0 Bft)
22.03.2019 04:01 16,8 C -2,4 C -3,9 C 49 % 77 % 1031,9 hPa 0,0 l/m 1,6 km/h (1 Bft) W-NW 292 -5,9 C -2,4 C 0,0 km/h (0 Bft)
22.03.2019 04:00 16,8 C -2,4 C -3,8 C 49 % 77 % 1031,9 hPa 0,0 l/m 1,6 km/h (1 Bft) W 270 -5,9 C -2,4 C 2,9 km/h (1 Bft)
22.03.2019 03:59 16,8 C -2,4 C -3,8 C 49 % 77 % 1031,9 hPa 0,0 l/m 1,6 km/h (1 Bft) W 270 -5,9 C -2,4 C 2,9 km/h (1 Bft)
22.03.2019 03:58 16,8 C -2,4 C -3,6 C 49 % 76 % 1031,9 hPa 0,0 l/m 1,3 km/h (1 Bft) W 270 -6,0 C -2,4 C 3,1 km/h (1 Bft)
22.03.2019 03:57 16,8 C -2,4 C -3,6 C 49 % 76 % 1031,9 hPa 0,0 l/m 1,3 km/h (1 Bft) W 270 -6,0 C -2,4 C 3,1 km/h (1 Bft)
22.03.2019 03:56 16,8 C -2,5 C -3,6 C 49 % 76 % 1031,9 hPa 0,0 l/m 1,0 km/h (0 Bft) W 270 -6,1 C -2,5 C 3,8 km/h (1 Bft)
22.03.2019 03:55 16,8 C -2,5 C -3,6 C 49 % 76 % 1031,9 hPa 0,0 l/m 1,0 km/h (0 Bft) W 270 -6,1 C -2,5 C 3,8 km/h (1 Bft)
22.03.2019 03:54 16,9 C -2,8 C -4,1 C 49 % 76 % 1032,1 hPa 0,0 l/m 0,3 km/h (0 Bft) W 270 -6,4 C -2,8 C 2,9 km/h (1 Bft)
22.03.2019 03:53 16,9 C -2,8 C -4,1 C 49 % 76 % 1032,1 hPa 0,0 l/m 0,3 km/h (0 Bft) W 270 -6,4 C -2,8 C 2,9 km/h (1 Bft)
22.03.2019 03:52 16,8 C -2,8 C -4,3 C 49 % 76 % 1032,1 hPa 0,0 l/m 0,2 km/h (0 Bft) W 270 -6,4 C -2,8 C 0,0 km/h (0 Bft)
22.03.2019 03:51 16,8 C -2,8 C -4,3 C 49 % 76 % 1032,1 hPa 0,0 l/m 0,2 km/h (0 Bft) W 270 -6,4 C -2,8 C 0,0 km/h (0 Bft)
22.03.2019 03:50 16,9 C -2,7 C -4,3 C 49 % 76 % 1032,1 hPa 0,0 l/m 0,3 km/h (0 Bft) W 270 -6,3 C -2,7 C 0,0 km/h (0 Bft)
22.03.2019 03:49 16,9 C -2,7 C -4,3 C 49 % 76 % 1032,1 hPa 0,0 l/m 0,3 km/h (0 Bft) W 270 -6,3 C -2,7 C 0,0 km/h (0 Bft)
22.03.2019 03:48 16,9 C -2,7 C -4,2 C 49 % 76 % 1032,1 hPa 0,0 l/m 0,3 km/h (0 Bft) W 270 -6,3 C -2,7 C 0,0 km/h (0 Bft)
22.03.2019 03:47 16,9 C -2,7 C -4,2 C 49 % 76 % 1032,1 hPa 0,0 l/m 0,3 km/h (0 Bft) W 270 -6,3 C -2,7 C 0,0 km/h (0 Bft)
22.03.2019 03:46 16,9 C -2,5 C -4,1 C 49 % 76 % 1032,1 hPa 0,0 l/m 0,8 km/h (0 Bft) W 270 -6,1 C -2,5 C 0,0 km/h (0 Bft)
22.03.2019 03:45 16,9 C -2,5 C -4,1 C 49 % 76 % 1032,1 hPa 0,0 l/m 0,8 km/h (0 Bft) W 270 -6,1 C -2,5 C 0,0 km/h (0 Bft)
22.03.2019 03:44 16,9 C -2,5 C -4,1 C 49 % 76 % 1032,1 hPa 0,0 l/m 1,0 km/h (0 Bft) W 270 -6,1 C -2,5 C 0,0 km/h (0 Bft)
22.03.2019 03:43 16,9 C -2,5 C -4,1 C 49 % 76 % 1032,1 hPa 0,0 l/m 1,0 km/h (0 Bft) W 270 -6,1 C -2,5 C 0,0 km/h (0 Bft)
22.03.2019 03:42 16,9 C -2,5 C -3,9 C 49 % 76 % 1032,1 hPa 0,0 l/m 1,3 km/h (1 Bft) W 270 -6,1 C -2,5 C 0,0 km/h (0 Bft)
22.03.2019 03:41 16,9 C -2,5 C -3,9 C 49 % 76 % 1032,1 hPa 0,0 l/m 1,3 km/h (1 Bft) W 270 -6,1 C -2,5 C 0,0 km/h (0 Bft)
22.03.2019 03:40 16,9 C -2,4 C -3,9 C 49 % 76 % 1032,1 hPa 0,0 l/m 1,4 km/h (1 Bft) NW 315 -6,0 C -2,4 C 2,3 km/h (1 Bft)
22.03.2019 03:39 16,9 C -2,4 C -3,9 C 49 % 76 % 1032,1 hPa 0,0 l/m 1,4 km/h (1 Bft) NW 315 -6,0 C -2,4 C 2,3 km/h (1 Bft)
22.03.2019 03:38 16,9 C -2,5 C -4,1 C 49 % 76 % 1032,1 hPa 0,0 l/m 1,8 km/h (1 Bft) W 270 -6,1 C -2,5 C 2,3 km/h (1 Bft)
22.03.2019 03:37 16,9 C -2,5 C -4,1 C 49 % 76 % 1032,1 hPa 0,0 l/m 1,8 km/h (1 Bft) W 270 -6,1 C -2,5 C 2,3 km/h (1 Bft)
22.03.2019 03:36 16,9 C -2,5 C -4,1 C 49 % 76 % 1032,1 hPa 0,0 l/m 1,9 km/h (1 Bft) W 270 -6,1 C -2,5 C 2,7 km/h (1 Bft)
22.03.2019 03:35 16,9 C -2,5 C -4,1 C 49 % 76 % 1032,1 hPa 0,0 l/m 1,9 km/h (1 Bft) W 270 -6,1 C -2,5 C 2,7 km/h (1 Bft)
22.03.2019 03:34 16,9 C -2,5 C -4,1 C 49 % 76 % 1032,1 hPa 0,0 l/m 1,8 km/h (1 Bft) W-NW 292 -6,1 C -2,5 C 2,9 km/h (1 Bft)
22.03.2019 03:33 16,9 C -2,5 C -4,1 C 49 % 76 % 1032,1 hPa 0,0 l/m 1,8 km/h (1 Bft) W-NW 292 -6,1 C -2,5 C 2,9 km/h (1 Bft)
22.03.2019 03:32 16,9 C -2,5 C -4,1 C 49 % 76 % 1032,1 hPa 0,0 l/m 1,4 km/h (1 Bft) NW 315 -6,1 C -2,5 C 0,0 km/h (0 Bft)
22.03.2019 03:31 16,9 C -2,5 C -4,1 C 49 % 76 % 1032,1 hPa 0,0 l/m 1,4 km/h (1 Bft) NW 315 -6,1 C -2,5 C 0,0 km/h (0 Bft)
22.03.2019 03:30 16,9 C -2,4 C -3,9 C 49 % 76 % 1032,1 hPa 0,0 l/m 1,4 km/h (1 Bft) W 270 -6,0 C -2,4 C 3,1 km/h (1 Bft)
22.03.2019 03:29 16,9 C -2,4 C -3,9 C 49 % 76 % 1032,1 hPa 0,0 l/m 1,4 km/h (1 Bft) W 270 -6,0 C -2,4 C 3,1 km/h (1 Bft)
22.03.2019 03:28 16,9 C -2,3 C -3,8 C 49 % 76 % 1032,1 hPa 0,0 l/m 1,3 km/h (1 Bft) W-NW 292 -5,9 C -2,3 C 2,1 km/h (1 Bft)
22.03.2019 03:27 16,9 C -2,3 C -3,8 C 49 % 76 % 1032,1 hPa 0,0 l/m 1,3 km/h (1 Bft) W-NW 292 -5,9 C -2,3 C 2,1 km/h (1 Bft)
22.03.2019 03:26 17,0 C -2,3 C -3,8 C 49 % 76 % 1032,1 hPa 0,0 l/m 1,4 km/h (1 Bft) W-NW 292 -5,9 C -2,3 C 3,8 km/h (1 Bft)
22.03.2019 03:25 17,0 C -2,3 C -3,8 C 49 % 76 % 1032,1 hPa 0,0 l/m 1,4 km/h (1 Bft) W-NW 292 -5,9 C -2,3 C 3,8 km/h (1 Bft)
22.03.2019 03:24 16,9 C -2,1 C -3,8 C 49 % 76 % 1032,1 hPa 0,0 l/m 1,4 km/h (1 Bft) W-NW 292 -5,7 C -2,1 C 2,1 km/h (1 Bft)
22.03.2019 03:23 16,9 C -2,1 C -3,8 C 49 % 76 % 1032,1 hPa 0,0 l/m 1,4 km/h (1 Bft) W-NW 292 -5,7 C -2,1 C 2,1 km/h (1 Bft)
22.03.2019 03:22 17,0 C -2,2 C -3,6 C 49 % 76 % 1032,1 hPa 0,0 l/m 1,9 km/h (1 Bft) NW 315 -5,8 C -2,2 C 0,0 km/h (0 Bft)
22.03.2019 03:21 17,0 C -2,2 C -3,6 C 49 % 76 % 1032,1 hPa 0,0 l/m 1,9 km/h (1 Bft) NW 315 -5,8 C -2,2 C 0,0 km/h (0 Bft)
22.03.2019 03:20 17,0 C -2,2 C -3,8 C 48 % 76 % 1032,1 hPa 0,0 l/m 2,3 km/h (1 Bft) W-NW 292 -5,8 C -2,2 C 2,7 km/h (1 Bft)
22.03.2019 03:19 17,0 C -2,2 C -3,8 C 48 % 76 % 1032,1 hPa 0,0 l/m 2,3 km/h (1 Bft) W-NW 292 -5,8 C -2,2 C 2,7 km/h (1 Bft)
22.03.2019 03:18 16,9 C -2,2 C -3,5 C 48 % 76 % 1032,1 hPa 0,0 l/m 2,4 km/h (1 Bft) W-NW 292 -5,8 C -2,2 C 4,0 km/h (1 Bft)
22.03.2019 03:17 16,9 C -2,2 C -3,5 C 48 % 76 % 1032,1 hPa 0,0 l/m 2,4 km/h (1 Bft) W-NW 292 -5,8 C -2,2 C 4,0 km/h (1 Bft)
22.03.2019 03:16 17,0 C -2,2 C -3,8 C 48 % 76 % 1032,1 hPa 0,0 l/m 2,3 km/h (1 Bft) W 270 -5,8 C -2,2 C 4,4 km/h (1 Bft)
22.03.2019 03:15 17,0 C -2,2 C -3,8 C 48 % 76 % 1032,1 hPa 0,0 l/m 2,3 km/h (1 Bft) W 270 -5,8 C -2,2 C 4,4 km/h (1 Bft)
22.03.2019 03:14 17,0 C -2,2 C -3,8 C 48 % 76 % 1032,2 hPa 0,0 l/m 2,1 km/h (1 Bft) W 270 -5,8 C -2,2 C 3,8 km/h (1 Bft)
22.03.2019 03:13 17,0 C -2,2 C -3,8 C 48 % 76 % 1032,2 hPa 0,0 l/m 2,1 km/h (1 Bft) W 270 -5,8 C -2,2 C 3,8 km/h (1 Bft)
22.03.2019 03:12 17,0 C -2,0 C -3,6 C 48 % 76 % 1032,2 hPa 0,0 l/m 1,9 km/h (1 Bft) NW 315 -5,6 C -2,0 C 3,6 km/h (1 Bft)
22.03.2019 03:11 17,0 C -2,0 C -3,6 C 48 % 76 % 1032,2 hPa 0,0 l/m 1,9 km/h (1 Bft) NW 315 -5,6 C -2,0 C 3,6 km/h (1 Bft)
22.03.2019 03:10 17,0 C -1,9 C -3,2 C 48 % 76 % 1032,2 hPa 0,0 l/m 1,8 km/h (1 Bft) W-NW 292 -5,6 C -1,9 C 4,2 km/h (1 Bft)
22.03.2019 03:09 17,0 C -1,9 C -3,2 C 48 % 76 % 1032,2 hPa 0,0 l/m 1,8 km/h (1 Bft) W-NW 292 -5,6 C -1,9 C 4,2 km/h (1 Bft)
22.03.2019 03:08 17,0 C -1,9 C -3,0 C 48 % 76 % 1032,2 hPa 0,0 l/m 1,6 km/h (1 Bft) NW 315 -5,6 C -1,9 C 4,4 km/h (1 Bft)
22.03.2019 03:07 17,0 C -1,9 C -3,0 C 48 % 76 % 1032,2 hPa 0,0 l/m 1,6 km/h (1 Bft) NW 315 -5,6 C -1,9 C 4,4 km/h (1 Bft)
22.03.2019 03:06 17,0 C -2,0 C -3,0 C 48 % 76 % 1032,2 hPa 0,0 l/m 1,6 km/h (1 Bft) NW 315 -5,6 C -2,0 C 2,5 km/h (1 Bft)
22.03.2019 03:05 17,0 C -2,0 C -3,0 C 48 % 76 % 1032,2 hPa 0,0 l/m 1,6 km/h (1 Bft) NW 315 -5,6 C -2,0 C 2,5 km/h (1 Bft)
22.03.2019 03:04 17,0 C -2,2 C -3,6 C 48 % 75 % 1032,2 hPa 0,0 l/m 1,9 km/h (1 Bft) W 270 -6,0 C -2,2 C 2,1 km/h (1 Bft)
22.03.2019 03:03 17,0 C -2,2 C -3,6 C 48 % 75 % 1032,2 hPa 0,0 l/m 1,9 km/h (1 Bft) W 270 -6,0 C -2,2 C 2,1 km/h (1 Bft)
22.03.2019 03:02 17,0 C -2,2 C -3,6 C 48 % 75 % 1032,2 hPa 0,0 l/m 1,9 km/h (1 Bft) W 270 -6,0 C -2,2 C 2,1 km/h (1 Bft)
22.03.2019 03:01 17,0 C -2,2 C -3,6 C 48 % 75 % 1032,2 hPa 0,0 l/m 1,9 km/h (1 Bft) W 270 -6,0 C -2,2 C 2,1 km/h (1 Bft)
22.03.2019 03:00 17,0 C -2,0 C -3,4 C 48 % 75 % 1032,2 hPa 0,0 l/m 2,3 km/h (1 Bft) N-NW 337 -5,8 C -2,0 C 2,9 km/h (1 Bft)
22.03.2019 02:59 17,0 C -2,0 C -3,4 C 48 % 75 % 1032,2 hPa 0,0 l/m 2,3 km/h (1 Bft) N-NW 337 -5,8 C -2,0 C 2,9 km/h (1 Bft)
22.03.2019 02:58 17,0 C -2,0 C -3,2 C 48 % 75 % 1032,2 hPa 0,0 l/m 2,6 km/h (1 Bft) W 270 -5,8 C -2,0 C 3,6 km/h (1 Bft)
22.03.2019 02:57 17,0 C -2,0 C -3,2 C 48 % 75 % 1032,2 hPa 0,0 l/m 2,6 km/h (1 Bft) W 270 -5,8 C -2,0 C 3,6 km/h (1 Bft)
22.03.2019 02:56 17,0 C -2,0 C -3,4 C 48 % 75 % 1032,2 hPa 0,0 l/m 2,4 km/h (1 Bft) NW 315 -5,8 C -2,0 C 3,6 km/h (1 Bft)
22.03.2019 02:55 17,0 C -2,0 C -3,4 C 48 % 75 % 1032,2 hPa 0,0 l/m 2,4 km/h (1 Bft) NW 315 -5,8 C -2,0 C 3,6 km/h (1 Bft)
22.03.2019 02:54 17,0 C -2,0 C -3,2 C 48 % 75 % 1032,4 hPa 0,0 l/m 2,1 km/h (1 Bft) NW 315 -5,8 C -2,0 C 4,0 km/h (1 Bft)
22.03.2019 02:53 17,0 C -2,0 C -3,2 C 48 % 75 % 1032,4 hPa 0,0 l/m 2,1 km/h (1 Bft) NW 315 -5,8 C -2,0 C 4,0 km/h (1 Bft)
22.03.2019 02:52 17,0 C -2,0 C -3,2 C 48 % 75 % 1032,4 hPa 0,0 l/m 1,8 km/h (1 Bft) W-NW 292 -5,8 C -2,0 C 2,7 km/h (1 Bft)
22.03.2019 02:51 17,0 C -2,0 C -3,2 C 48 % 75 % 1032,4 hPa 0,0 l/m 1,8 km/h (1 Bft) W-NW 292 -5,8 C -2,0 C 2,7 km/h (1 Bft)
22.03.2019 02:50 17,0 C -2,2 C -3,1 C 48 % 75 % 1032,4 hPa 0,0 l/m 1,4 km/h (1 Bft) W-NW 292 -6,0 C -2,2 C 3,6 km/h (1 Bft)
22.03.2019 02:49 17,0 C -2,2 C -3,1 C 48 % 75 % 1032,4 hPa 0,0 l/m 1,4 km/h (1 Bft) W-NW 292 -6,0 C -2,2 C 3,6 km/h (1 Bft)
22.03.2019 02:48 17,1 C -2,2 C -3,4 C 48 % 75 % 1032,4 hPa 0,0 l/m 1,0 km/h (0 Bft) NW 315 -6,0 C -2,2 C 4,0 km/h (1 Bft)
22.03.2019 02:47 17,1 C -2,2 C -3,4 C 48 % 75 % 1032,4 hPa 0,0 l/m 1,0 km/h (0 Bft) NW 315 -6,0 C -2,2 C 4,0 km/h (1 Bft)
22.03.2019 02:46 17,1 C -2,2 C -3,6 C 48 % 75 % 1032,4 hPa 0,0 l/m 0,6 km/h (0 Bft) W 270 -6,0 C -2,2 C 2,3 km/h (1 Bft)
22.03.2019 02:45 17,1 C -2,2 C -3,6 C 48 % 75 % 1032,4 hPa 0,0 l/m 0,6 km/h (0 Bft) W 270 -6,0 C -2,2 C 2,3 km/h (1 Bft)
22.03.2019 02:44 17,1 C -2,0 C -3,5 C 48 % 75 % 1032,4 hPa 0,0 l/m 0,3 km/h (0 Bft) W 270 -5,8 C -2,0 C 0,0 km/h (0 Bft)
22.03.2019 02:43 17,1 C -2,0 C -3,5 C 48 % 75 % 1032,4 hPa 0,0 l/m 0,3 km/h (0 Bft) W 270 -5,8 C -2,0 C 0,0 km/h (0 Bft)
22.03.2019 02:42 17,1 C -2,0 C -3,2 C 48 % 75 % 1032,4 hPa 0,0 l/m 0,3 km/h (0 Bft) W 270 -5,8 C -2,0 C 2,3 km/h (1 Bft)
22.03.2019 02:41 17,1 C -2,0 C -3,2 C 48 % 75 % 1032,4 hPa 0,0 l/m 0,3 km/h (0 Bft) W 270 -5,8 C -2,0 C 2,3 km/h (1 Bft)
22.03.2019 02:40 17,1 C -2,0 C -3,0 C 48 % 75 % 1032,4 hPa 0,0 l/m 0,3 km/h (0 Bft) NW 315 -5,8 C -2,0 C 2,3 km/h (1 Bft)
22.03.2019 02:39 17,1 C -2,0 C -3,0 C 48 % 75 % 1032,4 hPa 0,0 l/m 0,3 km/h (0 Bft) NW 315 -5,8 C -2,0 C 2,3 km/h (1 Bft)
22.03.2019 02:38 17,1 C -2,2 C -3,1 C 48 % 75 % 1032,4 hPa 0,0 l/m 0,3 km/h (0 Bft) N-NW 337 -6,0 C -2,2 C 2,1 km/h (1 Bft)
22.03.2019 02:37 17,1 C -2,2 C -3,1 C 48 % 75 % 1032,4 hPa 0,0 l/m 0,3 km/h (0 Bft) N-NW 337 -6,0 C -2,2 C 2,1 km/h (1 Bft)
22.03.2019 02:36 17,1 C -2,3 C -3,4 C 48 % 75 % 1032,4 hPa 0,0 l/m 0,2 km/h (0 Bft) NW 315 -6,1 C -2,3 C 0,0 km/h (0 Bft)
22.03.2019 02:35 17,1 C -2,3 C -3,4 C 48 % 75 % 1032,4 hPa 0,0 l/m 0,2 km/h (0 Bft) NW 315 -6,1 C -2,3 C 0,0 km/h (0 Bft)
22.03.2019 02:34 17,1 C -2,3 C -3,6 C 48 % 75 % 1032,4 hPa 0,0 l/m 0,2 km/h (0 Bft) W 270 -6,1 C -2,3 C 0,0 km/h (0 Bft)
22.03.2019 02:33 17,1 C -2,3 C -3,6 C 48 % 75 % 1032,4 hPa 0,0 l/m 0,2 km/h (0 Bft) W 270 -6,1 C -2,3 C 0,0 km/h (0 Bft)
22.03.2019 02:32 17,1 C -2,3 C -3,5 C 48 % 75 % 1032,4 hPa 0,0 l/m 0,3 km/h (0 Bft) W 270 -6,1 C -2,3 C 2,5 km/h (1 Bft)
22.03.2019 02:31 17,1 C -2,3 C -3,5 C 48 % 75 % 1032,4 hPa 0,0 l/m 0,3 km/h (0 Bft) W 270 -6,1 C -2,3 C 2,5 km/h (1 Bft)
22.03.2019 02:30 17,2 C -2,3 C -3,4 C 48 % 75 % 1032,4 hPa 0,0 l/m 0,6 km/h (0 Bft) W-SW 247 -6,1 C -2,3 C 0,0 km/h (0 Bft)
22.03.2019 02:29 17,2 C -2,3 C -3,4 C 48 % 75 % 1032,4 hPa 0,0 l/m 0,6 km/h (0 Bft) W-SW 247 -6,1 C -2,3 C 0,0 km/h (0 Bft)
22.03.2019 02:28 17,1 C -2,3 C -3,4 C 47 % 75 % 1032,4 hPa 0,0 l/m 0,8 km/h (0 Bft) W 270 -6,1 C -2,3 C 0,0 km/h (0 Bft)
22.03.2019 02:27 17,1 C -2,3 C -3,4 C 47 % 75 % 1032,4 hPa 0,0 l/m 0,8 km/h (0 Bft) W 270 -6,1 C -2,3 C 0,0 km/h (0 Bft)
22.03.2019 02:26 17,2 C -2,3 C -3,5 C 47 % 75 % 1032,4 hPa 0,0 l/m 1,1 km/h (1 Bft) NW 315 -6,1 C -2,3 C 0,0 km/h (0 Bft)
22.03.2019 02:25 17,2 C -2,3 C -3,5 C 47 % 75 % 1032,4 hPa 0,0 l/m 1,1 km/h (1 Bft) NW 315 -6,1 C -2,3 C 0,0 km/h (0 Bft)
22.03.2019 02:24 17,2 C -2,3 C -3,6 C 47 % 74 % 1032,4 hPa 0,0 l/m 1,4 km/h (1 Bft) NW 315 -6,3 C -2,3 C 0,0 km/h (0 Bft)
22.03.2019 02:23 17,2 C -2,3 C -3,6 C 47 % 74 % 1032,4 hPa 0,0 l/m 1,4 km/h (1 Bft) NW 315 -6,3 C -2,3 C 0,0 km/h (0 Bft)
22.03.2019 02:22 17,2 C -2,3 C -3,6 C 47 % 74 % 1032,4 hPa 0,0 l/m 1,9 km/h (1 Bft) W 270 -6,3 C -2,3 C 3,3 km/h (1 Bft)
22.03.2019 02:21 17,2 C -2,3 C -3,6 C 47 % 74 % 1032,4 hPa 0,0 l/m 1,9 km/h (1 Bft) W 270 -6,3 C -2,3 C 3,3 km/h (1 Bft)
22.03.2019 02:20 17,2 C -2,2 C -3,5 C 47 % 74 % 1032,4 hPa 0,0 l/m 1,8 km/h (1 Bft) W 270 -6,2 C -2,2 C 0,0 km/h (0 Bft)
22.03.2019 02:19 17,2 C -2,2 C -3,5 C 47 % 74 % 1032,4 hPa 0,0 l/m 1,8 km/h (1 Bft) W 270 -6,2 C -2,2 C 0,0 km/h (0 Bft)
22.03.2019 02:18 17,2 C -2,2 C -3,5 C 47 % 74 % 1032,4 hPa 0,0 l/m 1,8 km/h (1 Bft) N-NO 22 -6,2 C -2,2 C 2,3 km/h (1 Bft)
22.03.2019 02:17 17,2 C -2,2 C -3,5 C 47 % 74 % 1032,4 hPa 0,0 l/m 1,8 km/h (1 Bft) N-NO 22 -6,2 C -2,2 C 2,3 km/h (1 Bft)
22.03.2019 02:16 17,2 C -2,0 C -3,5 C 47 % 74 % 1032,4 hPa 0,0 l/m 1,3 km/h (1 Bft) W 270 -6,0 C -2,0 C 2,5 km/h (1 Bft)
22.03.2019 02:15 17,2 C -2,0 C -3,5 C 47 % 74 % 1032,4 hPa 0,0 l/m 1,3 km/h (1 Bft) W 270 -6,0 C -2,0 C 2,5 km/h (1 Bft)
22.03.2019 02:14 17,2 C -2,0 C -3,5 C 47 % 74 % 1032,6 hPa 0,0 l/m 1,0 km/h (0 Bft) W 270 -6,0 C -2,0 C 4,4 km/h (1 Bft)
22.03.2019 02:13 17,2 C -2,0 C -3,5 C 47 % 74 % 1032,6 hPa 0,0 l/m 1,0 km/h (0 Bft) W 270 -6,0 C -2,0 C 4,4 km/h (1 Bft)
22.03.2019 02:12 17,2 C -2,0 C -3,4 C 47 % 74 % 1032,6 hPa 0,0 l/m 0,6 km/h (0 Bft) N-NW 337 -6,0 C -2,0 C 3,8 km/h (1 Bft)
22.03.2019 02:11 17,2 C -2,0 C -3,4 C 47 % 74 % 1032,6 hPa 0,0 l/m 0,6 km/h (0 Bft) N-NW 337 -6,0 C -2,0 C 3,8 km/h (1 Bft)
22.03.2019 02:10 17,2 C -2,0 C -3,2 C 47 % 74 % 1032,6 hPa 0,0 l/m 0,3 km/h (0 Bft) W-NW 292 -6,0 C -2,0 C 2,5 km/h (1 Bft)
22.03.2019 02:09 17,2 C -2,0 C -3,2 C 47 % 74 % 1032,6 hPa 0,0 l/m 0,3 km/h (0 Bft) W-NW 292 -6,0 C -2,0 C 2,5 km/h (1 Bft)
22.03.2019 02:08 17,2 C -1,9 C -3,2 C 47 % 74 % 1032,6 hPa 0,0 l/m 0,6 km/h (0 Bft) NW 315 -5,9 C -1,9 C 0,0 km/h (0 Bft)
22.03.2019 02:07 17,2 C -1,9 C -3,2 C 47 % 74 % 1032,6 hPa 0,0 l/m 0,6 km/h (0 Bft) NW 315 -5,9 C -1,9 C 0,0 km/h (0 Bft)
22.03.2019 02:06 17,2 C -1,9 C -3,4 C 47 % 74 % 1032,6 hPa 0,0 l/m 1,0 km/h (0 Bft) W-NW 292 -5,9 C -1,9 C 0,0 km/h (0 Bft)
22.03.2019 02:05 17,2 C -1,9 C -3,4 C 47 % 74 % 1032,6 hPa 0,0 l/m 1,0 km/h (0 Bft) W-NW 292 -5,9 C -1,9 C 0,0 km/h (0 Bft)
22.03.2019 02:04 17,2 C -1,8 C -3,4 C 47 % 74 % 1032,6 hPa 0,0 l/m 1,9 km/h (1 Bft) W 270 -5,8 C -1,8 C 2,1 km/h (1 Bft)
22.03.2019 02:03 17,2 C -1,8 C -3,4 C 47 % 74 % 1032,6 hPa 0,0 l/m 1,9 km/h (1 Bft) W 270 -5,8 C -1,8 C 2,1 km/h (1 Bft)
22.03.2019 02:02 17,2 C -1,6 C -3,4 C 47 % 74 % 1032,6 hPa 0,0 l/m 1,9 km/h (1 Bft) W-SW 247 -5,6 C -1,6 C 0,0 km/h (0 Bft)
22.03.2019 02:01 17,2 C -1,6 C -3,4 C 47 % 74 % 1032,6 hPa 0,0 l/m 1,9 km/h (1 Bft) W-SW 247 -5,6 C -1,6 C 0,0 km/h (0 Bft)
22.03.2019 02:00 17,2 C -1,5 C -3,1 C 47 % 74 % 1032,6 hPa 0,0 l/m 2,4 km/h (1 Bft) N-NW 337 -5,5 C -1,5 C 0,0 km/h (0 Bft)
22.03.2019 01:59 17,2 C -1,5 C -3,1 C 47 % 74 % 1032,6 hPa 0,0 l/m 2,4 km/h (1 Bft) N-NW 337 -5,5 C -1,5 C 0,0 km/h (0 Bft)
22.03.2019 01:58 17,2 C -1,5 C -2,7 C 47 % 74 % 1032,6 hPa 0,0 l/m 2,4 km/h (1 Bft) W-NW 292 -5,5 C -1,5 C 2,9 km/h (1 Bft)
22.03.2019 01:57 17,2 C -1,5 C -2,7 C 47 % 74 % 1032,6 hPa 0,0 l/m 2,4 km/h (1 Bft) W-NW 292 -5,5 C -1,5 C 2,9 km/h (1 Bft)
22.03.2019 01:56 17,2 C -1,5 C -2,4 C 47 % 74 % 1032,6 hPa 0,0 l/m 2,4 km/h (1 Bft) W 270 -5,5 C -1,5 C 3,1 km/h (1 Bft)
22.03.2019 01:55 17,2 C -1,5 C -2,4 C 47 % 74 % 1032,6 hPa 0,0 l/m 2,4 km/h (1 Bft) W 270 -5,5 C -1,5 C 3,1 km/h (1 Bft)
22.03.2019 01:54 17,2 C -1,6 C -2,8 C 47 % 74 % 1032,9 hPa 0,0 l/m 2,3 km/h (1 Bft) W 270 -5,6 C -1,6 C 3,8 km/h (1 Bft)
22.03.2019 01:53 17,2 C -1,6 C -2,8 C 47 % 74 % 1032,9 hPa 0,0 l/m 2,3 km/h (1 Bft) W 270 -5,6 C -1,6 C 3,8 km/h (1 Bft)
22.03.2019 01:52 17,2 C -1,8 C -3,1 C 47 % 74 % 1032,9 hPa 0,0 l/m 2,1 km/h (1 Bft) W 270 -5,8 C -1,8 C 5,4 km/h (1 Bft)
22.03.2019 01:51 17,2 C -1,8 C -3,1 C 47 % 74 % 1032,9 hPa 0,0 l/m 2,1 km/h (1 Bft) W 270 -5,8 C -1,8 C 3,8 km/h (1 Bft)
22.03.2019 01:50 17,2 C -1,8 C -3,0 C 47 % 74 % 1032,9 hPa 0,0 l/m 2,1 km/h (1 Bft) W-NW 292 -5,8 C -1,8 C 3,8 km/h (1 Bft)
22.03.2019 01:49 17,2 C -1,8 C -3,0 C 47 % 74 % 1032,9 hPa 0,0 l/m 2,1 km/h (1 Bft) W-NW 292 -5,8 C -1,8 C 3,8 km/h (1 Bft)
22.03.2019 01:48 17,3 C -1,8 C -3,1 C 47 % 74 % 1032,9 hPa 0,0 l/m 2,1 km/h (1 Bft) W 270 -5,8 C -1,8 C 4,0 km/h (1 Bft)
22.03.2019 01:47 17,3 C -1,8 C -3,1 C 47 % 74 % 1032,9 hPa 0,0 l/m 2,1 km/h (1 Bft) W 270 -5,8 C -1,8 C 4,0 km/h (1 Bft)
22.03.2019 01:46 17,3 C -1,8 C -3,0 C 47 % 74 % 1032,9 hPa 0,0 l/m 1,9 km/h (1 Bft) N-NW 337 -5,8 C -1,8 C 2,9 km/h (1 Bft)
22.03.2019 01:45 17,3 C -1,8 C -3,0 C 47 % 74 % 1032,9 hPa 0,0 l/m 1,9 km/h (1 Bft) N-NW 337 -5,8 C -1,8 C 2,9 km/h (1 Bft)
22.03.2019 01:44 17,3 C -1,8 C -3,1 C 47 % 74 % 1032,9 hPa 0,0 l/m 1,8 km/h (1 Bft) NW 315 -5,8 C -1,8 C 3,1 km/h (1 Bft)
22.03.2019 01:43 17,3 C -1,8 C -3,1 C 47 % 74 % 1032,9 hPa 0,0 l/m 1,8 km/h (1 Bft) NW 315 -5,8 C -1,8 C 3,1 km/h (1 Bft)
22.03.2019 01:42 17,3 C -1,9 C -3,0 C 47 % 74 % 1032,9 hPa 0,0 l/m 1,4 km/h (1 Bft) W-NW 292 -5,9 C -1,9 C 3,3 km/h (1 Bft)
22.03.2019 01:41 17,3 C -1,9 C -3,0 C 47 % 74 % 1032,9 hPa 0,0 l/m 1,4 km/h (1 Bft) W-NW 292 -5,9 C -1,9 C 3,3 km/h (1 Bft)
22.03.2019 01:40 17,2 C -1,9 C -3,4 C 47 % 73 % 1032,9 hPa 0,0 l/m 1,1 km/h (1 Bft) W 270 -6,1 C -1,9 C 2,7 km/h (1 Bft)
22.03.2019 01:39 17,2 C -1,9 C -3,4 C 47 % 73 % 1032,9 hPa 0,0 l/m 1,1 km/h (1 Bft) W 270 -6,1 C -1,9 C 2,7 km/h (1 Bft)
22.03.2019 01:38 17,2 C -1,9 C -3,4 C 47 % 73 % 1032,9 hPa 0,0 l/m 0,6 km/h (0 Bft) W 270 -6,1 C -1,9 C 3,1 km/h (1 Bft)
22.03.2019 01:37 17,2 C -1,9 C -3,4 C 47 % 73 % 1032,9 hPa 0,0 l/m 0,6 km/h (0 Bft) W 270 -6,1 C -1,9 C 3,1 km/h (1 Bft)
22.03.2019 01:36 17,2 C -1,8 C -3,2 C 47 % 73 % 1032,9 hPa 0,0 l/m 0,5 km/h (0 Bft) W 270 -6,0 C -1,8 C 3,1 km/h (1 Bft)
22.03.2019 01:35 17,2 C -1,8 C -3,2 C 47 % 73 % 1032,9 hPa 0,0 l/m 0,5 km/h (0 Bft) W 270 -6,0 C -1,8 C 3,1 km/h (1 Bft)
22.03.2019 01:34 17,2 C -1,6 C -3,1 C 47 % 73 % 1032,9 hPa 0,0 l/m 0,3 km/h (0 Bft) W 270 -5,8 C -1,6 C 2,7 km/h (1 Bft)
22.03.2019 01:33 17,2 C -1,6 C -3,1 C 47 % 73 % 1032,9 hPa 0,0 l/m 0,3 km/h (0 Bft) W 270 -5,8 C -1,6 C 2,7 km/h (1 Bft)
22.03.2019 01:32 17,2 C -1,6 C -3,0 C 47 % 73 % 1032,9 hPa 0,0 l/m 0,5 km/h (0 Bft) W 270 -5,8 C -1,6 C 0,0 km/h (0 Bft)
22.03.2019 01:31 17,2 C -1,6 C -3,0 C 47 % 73 % 1032,9 hPa 0,0 l/m 0,5 km/h (0 Bft) W 270 -5,8 C -1,6 C 0,0 km/h (0 Bft)
22.03.2019 01:30 17,2 C -1,6 C -3,0 C 46 % 73 % 1032,9 hPa 0,0 l/m 1,0 km/h (0 Bft) W-NW 292 -5,8 C -1,6 C 0,0 km/h (0 Bft)
22.03.2019 01:29 17,2 C -1,6 C -3,0 C 46 % 73 % 1032,9 hPa 0,0 l/m 1,0 km/h (0 Bft) W-NW 292 -5,8 C -1,6 C 0,0 km/h (0 Bft)
22.03.2019 01:28 17,2 C -1,6 C -3,0 C 46 % 73 % 1032,9 hPa 0,0 l/m 1,3 km/h (1 Bft) NW 315 -5,8 C -1,6 C 0,0 km/h (0 Bft)
22.03.2019 01:27 17,2 C -1,6 C -3,0 C 46 % 73 % 1032,9 hPa 0,0 l/m 1,3 km/h (1 Bft) NW 315 -5,8 C -1,6 C 0,0 km/h (0 Bft)
22.03.2019 01:26 17,2 C -1,5 C -3,1 C 46 % 73 % 1032,9 hPa 0,0 l/m 1,8 km/h (1 Bft) NW 315 -5,7 C -1,5 C 0,0 km/h (0 Bft)
22.03.2019 01:25 17,2 C -1,5 C -3,1 C 46 % 73 % 1032,9 hPa 0,0 l/m 1,8 km/h (1 Bft) NW 315 -5,7 C -1,5 C 0,0 km/h (0 Bft)
22.03.2019 01:24 17,4 C -1,4 C -2,7 C 46 % 73 % 1032,9 hPa 0,0 l/m 1,9 km/h (1 Bft) W 270 -5,6 C -1,4 C 2,9 km/h (1 Bft)
22.03.2019 01:23 17,4 C -1,4 C -2,7 C 46 % 73 % 1032,9 hPa 0,0 l/m 1,9 km/h (1 Bft) W 270 -5,6 C -1,4 C 2,9 km/h (1 Bft)
22.03.2019 01:22 17,4 C -1,4 C -2,3 C 46 % 73 % 1032,9 hPa 0,0 l/m 2,3 km/h (1 Bft) N-NW 337 -5,6 C -1,4 C 2,7 km/h (1 Bft)
22.03.2019 01:21 17,4 C -1,4 C -2,3 C 46 % 73 % 1032,9 hPa 0,0 l/m 2,3 km/h (1 Bft) N-NW 337 -5,6 C -1,4 C 2,7 km/h (1 Bft)
22.03.2019 01:20 17,4 C -1,5 C -2,7 C 46 % 73 % 1032,9 hPa 0,0 l/m 2,3 km/h (1 Bft) W 270 -5,7 C -1,5 C 3,6 km/h (1 Bft)
22.03.2019 01:19 17,4 C -1,5 C -2,7 C 46 % 73 % 1032,9 hPa 0,0 l/m 2,3 km/h (1 Bft) W 270 -5,7 C -1,5 C 3,6 km/h (1 Bft)
22.03.2019 01:18 17,4 C -1,5 C -2,7 C 46 % 73 % 1032,9 hPa 0,0 l/m 1,8 km/h (1 Bft) NW 315 -5,7 C -1,5 C 4,0 km/h (1 Bft)
22.03.2019 01:17 17,4 C -1,5 C -2,7 C 46 % 73 % 1032,9 hPa 0,0 l/m 1,8 km/h (1 Bft) NW 315 -5,7 C -1,5 C 4,0 km/h (1 Bft)
22.03.2019 01:16 17,4 C -1,6 C -3,0 C 46 % 73 % 1032,9 hPa 0,0 l/m 1,3 km/h (1 Bft) NW 315 -5,8 C -1,6 C 3,6 km/h (1 Bft)
22.03.2019 01:15 17,4 C -1,6 C -3,0 C 46 % 73 % 1032,9 hPa 0,0 l/m 1,3 km/h (1 Bft) NW 315 -5,8 C -1,6 C 3,6 km/h (1 Bft)
22.03.2019 01:14 17,4 C -1,6 C -3,1 C 46 % 73 % 1032,9 hPa 0,0 l/m 0,8 km/h (0 Bft) W 270 -5,8 C -1,6 C 2,9 km/h (1 Bft)
22.03.2019 01:13 17,4 C -1,6 C -3,1 C 46 % 73 % 1032,9 hPa 0,0 l/m 0,8 km/h (0 Bft) W 270 -5,8 C -1,6 C 2,9 km/h (1 Bft)
22.03.2019 01:12 17,4 C -1,6 C -3,1 C 46 % 73 % 1032,9 hPa 0,0 l/m 0,5 km/h (0 Bft) W 270 -5,8 C -1,6 C 3,1 km/h (1 Bft)
22.03.2019 01:11 17,4 C -1,6 C -3,1 C 46 % 73 % 1032,9 hPa 0,0 l/m 0,5 km/h (0 Bft) W 270 -5,8 C -1,6 C 3,1 km/h (1 Bft)
22.03.2019 01:10 17,4 C -1,6 C -3,1 C 46 % 73 % 1032,9 hPa 0,0 l/m 0,2 km/h (0 Bft) W 270 -5,8 C -1,6 C 3,1 km/h (1 Bft)
22.03.2019 01:09 17,4 C -1,6 C -3,1 C 46 % 73 % 1032,9 hPa 0,0 l/m 0,2 km/h (0 Bft) W 270 -5,8 C -1,6 C 3,1 km/h (1 Bft)
22.03.2019 01:08 17,4 C -1,5 C -2,8 C 46 % 73 % 1032,9 hPa 0,0 l/m 0,3 km/h (0 Bft) W 270 -5,7 C -1,5 C 0,0 km/h (0 Bft)
22.03.2019 01:07 17,4 C -1,5 C -2,8 C 46 % 73 % 1032,9 hPa 0,0 l/m 0,3 km/h (0 Bft) W 270 -5,7 C -1,5 C 0,0 km/h (0 Bft)
22.03.2019 01:06 17,4 C -1,5 C -2,8 C 46 % 73 % 1032,9 hPa 0,0 l/m 0,5 km/h (0 Bft) W-NW 292 -5,7 C -1,5 C 0,0 km/h (0 Bft)
22.03.2019 01:05 17,4 C -1,5 C -2,8 C 46 % 73 % 1032,9 hPa 0,0 l/m 0,5 km/h (0 Bft) W-NW 292 -5,7 C -1,5 C 0,0 km/h (0 Bft)
22.03.2019 01:04 17,4 C -1,4 C -2,8 C 46 % 73 % 1032,9 hPa 0,0 l/m 1,1 km/h (1 Bft) W 270 -5,6 C -1,4 C 0,0 km/h (0 Bft)
22.03.2019 01:03 17,4 C -1,4 C -2,8 C 46 % 73 % 1032,9 hPa 0,0 l/m 1,1 km/h (1 Bft) W 270 -5,6 C -1,4 C 0,0 km/h (0 Bft)
22.03.2019 01:02 17,4 C -1,4 C -2,8 C 45 % 73 % 1032,9 hPa 0,0 l/m 1,6 km/h (1 Bft) W 270 -5,6 C -1,4 C 0,0 km/h (0 Bft)
22.03.2019 01:01 17,4 C -1,4 C -2,8 C 45 % 73 % 1032,9 hPa 0,0 l/m 1,6 km/h (1 Bft) W 270 -5,6 C -1,4 C 0,0 km/h (0 Bft)
22.03.2019 01:00 17,4 C -1,2 C -2,4 C 45 % 73 % 1032,9 hPa 0,0 l/m 1,9 km/h (1 Bft) W 270 -5,4 C -1,2 C 0,0 km/h (0 Bft)
22.03.2019 00:59 17,4 C -1,2 C -2,4 C 45 % 73 % 1032,9 hPa 0,0 l/m 1,9 km/h (1 Bft) W 270 -5,4 C -1,2 C 0,0 km/h (0 Bft)
22.03.2019 00:58 17,4 C -1,2 C -2,4 C 45 % 73 % 1032,9 hPa 0,0 l/m 2,3 km/h (1 Bft) W 270 -5,4 C -1,2 C 2,5 km/h (1 Bft)
22.03.2019 00:57 17,4 C -1,2 C -2,4 C 45 % 73 % 1032,9 hPa 0,0 l/m 2,3 km/h (1 Bft) W 270 -5,4 C -1,2 C 2,5 km/h (1 Bft)
22.03.2019 00:56 17,4 C -1,4 C -2,4 C 45 % 73 % 1032,9 hPa 0,0 l/m 2,4 km/h (1 Bft) W-NW 292 -5,6 C -1,4 C 3,1 km/h (1 Bft)
22.03.2019 00:55 17,4 C -1,4 C -2,4 C 45 % 73 % 1032,9 hPa 0,0 l/m 2,4 km/h (1 Bft) W-NW 292 -5,6 C -1,4 C 3,1 km/h (1 Bft)
22.03.2019 00:54 17,4 C -1,5 C -2,7 C 45 % 73 % 1033,0 hPa 0,0 l/m 1,9 km/h (1 Bft) W 270 -5,7 C -1,5 C 4,2 km/h (1 Bft)
22.03.2019 00:53 17,4 C -1,5 C -2,7 C 45 % 73 % 1033,0 hPa 0,0 l/m 1,9 km/h (1 Bft) W 270 -5,7 C -1,5 C 4,2 km/h (1 Bft)
22.03.2019 00:52 17,5 C -1,5 C -3,0 C 45 % 73 % 1033,0 hPa 0,0 l/m 1,3 km/h (1 Bft) NW 315 -5,7 C -1,5 C 2,7 km/h (1 Bft)
22.03.2019 00:51 17,5 C -1,5 C -3,0 C 45 % 73 % 1033,0 hPa 0,0 l/m 1,3 km/h (1 Bft) NW 315 -5,7 C -1,5 C 2,7 km/h (1 Bft)
22.03.2019 00:50 17,5 C -1,5 C -3,0 C 45 % 73 % 1033,0 hPa 0,0 l/m 1,0 km/h (0 Bft) W 270 -5,7 C -1,5 C 2,5 km/h (1 Bft)
22.03.2019 00:49 17,5 C -1,5 C -3,0 C 45 % 73 % 1033,0 hPa 0,0 l/m 1,0 km/h (0 Bft) W 270 -5,7 C -1,5 C 2,5 km/h (1 Bft)
22.03.2019 00:48 17,5 C -1,5 C -3,0 C 45 % 73 % 1033,0 hPa 0,0 l/m 0,5 km/h (0 Bft) W 270 -5,7 C -1,5 C 2,9 km/h (1 Bft)
22.03.2019 00:47 17,5 C -1,5 C -3,0 C 45 % 73 % 1033,0 hPa 0,0 l/m 0,5 km/h (0 Bft) W 270 -5,7 C -1,5 C 2,9 km/h (1 Bft)
22.03.2019 00:46 17,5 C -1,4 C -2,7 C 45 % 73 % 1033,0 hPa 0,0 l/m 0,2 km/h (0 Bft) W 270 -5,6 C -1,4 C 2,1 km/h (1 Bft)
22.03.2019 00:45 17,5 C -1,4 C -2,7 C 45 % 73 % 1033,0 hPa 0,0 l/m 0,2 km/h (0 Bft) W 270 -5,6 C -1,4 C 2,1 km/h (1 Bft)
22.03.2019 00:44 17,5 C -1,4 C -2,7 C 45 % 73 % 1033,0 hPa 0,0 l/m 0,5 km/h (0 Bft) W 270 -5,6 C -1,4 C 0,0 km/h (0 Bft)
22.03.2019 00:43 17,5 C -1,4 C -2,7 C 45 % 73 % 1033,0 hPa 0,0 l/m 0,5 km/h (0 Bft) W 270 -5,6 C -1,4 C 0,0 km/h (0 Bft)
22.03.2019 00:42 17,5 C -1,4 C -2,7 C 45 % 73 % 1033,0 hPa 0,0 l/m 0,5 km/h (0 Bft) W 270 -5,6 C -1,4 C 0,0 km/h (0 Bft)
22.03.2019 00:41 17,5 C -1,4 C -2,7 C 45 % 73 % 1033,0 hPa 0,0 l/m 0,5 km/h (0 Bft) W 270 -5,6 C -1,4 C 0,0 km/h (0 Bft)
22.03.2019 00:40 17,5 C -1,2 C -2,9 C 45 % 73 % 1033,0 hPa 0,0 l/m 1,0 km/h (0 Bft) W 270 -5,4 C -1,2 C 0,0 km/h (0 Bft)
22.03.2019 00:39 17,5 C -1,2 C -2,9 C 45 % 73 % 1033,0 hPa 0,0 l/m 1,0 km/h (0 Bft) W 270 -5,4 C -1,2 C 0,0 km/h (0 Bft)
22.03.2019 00:38 17,6 C -1,1 C -2,6 C 45 % 73 % 1033,0 hPa 0,0 l/m 1,1 km/h (1 Bft) W 270 -5,3 C -1,1 C 0,0 km/h (0 Bft)
22.03.2019 00:37 17,6 C -1,1 C -2,6 C 45 % 73 % 1033,0 hPa 0,0 l/m 1,1 km/h (1 Bft) W 270 -5,3 C -1,1 C 0,0 km/h (0 Bft)
22.03.2019 00:36 17,6 C -1,0 C -2,4 C 45 % 73 % 1033,0 hPa 0,0 l/m 1,6 km/h (1 Bft) W-NW 292 -5,2 C -1,0 C 2,9 km/h (1 Bft)
22.03.2019 00:35 17,6 C -1,0 C -2,4 C 45 % 73 % 1033,0 hPa 0,0 l/m 1,6 km/h (1 Bft) W-NW 292 -5,2 C -1,0 C 2,9 km/h (1 Bft)
22.03.2019 00:34 17,6 C -1,0 C -2,3 C 45 % 73 % 1033,1 hPa 0,0 l/m 1,9 km/h (1 Bft) W 270 -5,2 C -1,0 C 3,3 km/h (1 Bft)
22.03.2019 00:33 17,6 C -1,0 C -2,3 C 45 % 73 % 1033,1 hPa 0,0 l/m 1,9 km/h (1 Bft) W 270 -5,2 C -1,0 C 3,3 km/h (1 Bft)
22.03.2019 00:32 17,6 C -1,0 C -2,4 C 45 % 73 % 1033,1 hPa 0,0 l/m 2,1 km/h (1 Bft) N-NW 337 -5,2 C -1,0 C 5,0 km/h (1 Bft)
22.03.2019 00:31 17,6 C -1,0 C -2,4 C 45 % 73 % 1033,1 hPa 0,0 l/m 2,1 km/h (1 Bft) N-NW 337 -5,2 C -1,0 C 0,0 km/h (0 Bft)
22.03.2019 00:30 17,6 C -1,0 C -2,3 C 45 % 73 % 1033,1 hPa 0,0 l/m 2,1 km/h (1 Bft) W-NW 292 -5,2 C -1,0 C 3,3 km/h (1 Bft)
22.03.2019 00:29 17,6 C -1,0 C -2,3 C 45 % 73 % 1033,1 hPa 0,0 l/m 2,1 km/h (1 Bft) W-NW 292 -5,2 C -1,0 C 3,3 km/h (1 Bft)
22.03.2019 00:28 17,6 C -1,0 C -2,3 C 45 % 73 % 1033,1 hPa 0,0 l/m 1,8 km/h (1 Bft) O-NO 67 -5,2 C -1,0 C 3,1 km/h (1 Bft)
22.03.2019 00:27 17,6 C -1,0 C -2,3 C 45 % 73 % 1033,1 hPa 0,0 l/m 1,8 km/h (1 Bft) O-NO 67 -5,2 C -1,0 C 3,1 km/h (1 Bft)
22.03.2019 00:26 17,6 C -1,0 C -2,2 C 45 % 73 % 1033,1 hPa 0,0 l/m 1,6 km/h (1 Bft) W-NW 292 -5,2 C -1,0 C 3,6 km/h (1 Bft)
22.03.2019 00:25 17,6 C -1,0 C -2,2 C 45 % 73 % 1033,1 hPa 0,0 l/m 1,6 km/h (1 Bft) W-NW 292 -5,2 C -1,0 C 3,6 km/h (1 Bft)
22.03.2019 00:24 17,6 C -1,0 C -2,4 C 44 % 72 % 1033,1 hPa 0,0 l/m 1,1 km/h (1 Bft) W 270 -5,4 C -1,0 C 4,8 km/h (1 Bft)
22.03.2019 00:23 17,6 C -1,0 C -2,4 C 44 % 72 % 1033,1 hPa 0,0 l/m 1,1 km/h (1 Bft) W 270 -5,4 C -1,0 C 4,8 km/h (1 Bft)
22.03.2019 00:22 17,6 C -1,0 C -2,3 C 44 % 72 % 1033,1 hPa 0,0 l/m 1,0 km/h (0 Bft) W 270 -5,4 C -1,0 C 4,0 km/h (1 Bft)
22.03.2019 00:21 17,6 C -1,0 C -2,3 C 44 % 72 % 1033,1 hPa 0,0 l/m 1,0 km/h (0 Bft) W 270 -5,4 C -1,0 C 2,3 km/h (1 Bft)
22.03.2019 00:20 17,6 C -1,0 C -2,4 C 44 % 72 % 1033,1 hPa 0,0 l/m 1,0 km/h (0 Bft) W 270 -5,4 C -1,0 C 2,9 km/h (1 Bft)
22.03.2019 00:19 17,6 C -1,0 C -2,4 C 44 % 72 % 1033,1 hPa 0,0 l/m 1,0 km/h (0 Bft) W 270 -5,4 C -1,0 C 2,9 km/h (1 Bft)
22.03.2019 00:18 17,6 C -0,8 C -2,3 C 44 % 72 % 1033,1 hPa 0,0 l/m 1,1 km/h (1 Bft) W 270 -5,2 C -0,8 C 0,0 km/h (0 Bft)
22.03.2019 00:17 17,6 C -0,8 C -2,3 C 44 % 72 % 1033,1 hPa 0,0 l/m 1,1 km/h (1 Bft) W 270 -5,2 C -0,8 C 0,0 km/h (0 Bft)
22.03.2019 00:16 17,7 C -0,8 C -2,0 C 45 % 72 % 1033,1 hPa 0,0 l/m 1,1 km/h (1 Bft) NW 315 -5,2 C -0,8 C 2,1 km/h (1 Bft)
22.03.2019 00:15 17,7 C -0,8 C -2,0 C 45 % 72 % 1033,1 hPa 0,0 l/m 1,1 km/h (1 Bft) NW 315 -5,2 C -0,8 C 2,1 km/h (1 Bft)
22.03.2019 00:14 17,7 C -0,8 C -1,9 C 45 % 72 % 1033,6 hPa 0,0 l/m 1,4 km/h (1 Bft) NW 315 -5,2 C -0,8 C 0,0 km/h (0 Bft)
22.03.2019 00:13 17,7 C -0,8 C -1,9 C 45 % 72 % 1033,6 hPa 0,0 l/m 1,4 km/h (1 Bft) NW 315 -5,2 C -0,8 C 0,0 km/h (0 Bft)
22.03.2019 00:12 17,7 C -1,0 C -1,9 C 45 % 72 % 1033,6 hPa 0,0 l/m 1,4 km/h (1 Bft) W 270 -5,4 C -1,0 C 3,1 km/h (1 Bft)
22.03.2019 00:11 17,7 C -1,0 C -1,9 C 45 % 72 % 1033,6 hPa 0,0 l/m 1,4 km/h (1 Bft) W 270 -5,4 C -1,0 C 2,5 km/h (1 Bft)
22.03.2019 00:10 17,7 C -1,1 C -2,4 C 45 % 72 % 1033,6 hPa 0,0 l/m 1,3 km/h (1 Bft) W 270 -5,5 C -1,1 C 2,9 km/h (1 Bft)
22.03.2019 00:09 17,7 C -1,1 C -2,4 C 45 % 72 % 1033,6 hPa 0,0 l/m 1,3 km/h (1 Bft) W 270 -5,5 C -1,1 C 2,9 km/h (1 Bft)
22.03.2019 00:08 17,7 C -1,1 C -2,7 C 45 % 72 % 1033,6 hPa 0,0 l/m 1,0 km/h (0 Bft) NW 315 -5,5 C -1,1 C 2,5 km/h (1 Bft)
22.03.2019 00:07 17,7 C -1,1 C -2,7 C 45 % 72 % 1033,6 hPa 0,0 l/m 1,0 km/h (0 Bft) NW 315 -5,5 C -1,1 C 2,5 km/h (1 Bft)
22.03.2019 00:06 17,7 C -1,0 C -2,4 C 45 % 72 % 1033,6 hPa 0,0 l/m 0,8 km/h (0 Bft) W 270 -5,4 C -1,0 C 2,1 km/h (1 Bft)
22.03.2019 00:05 17,7 C -1,0 C -2,4 C 45 % 72 % 1033,6 hPa 0,0 l/m 0,8 km/h (0 Bft) W 270 -5,4 C -1,0 C 2,1 km/h (1 Bft)
22.03.2019 00:04 17,8 C -1,1 C -2,7 C 45 % 71 % 1033,6 hPa 0,0 l/m 0,3 km/h (0 Bft) W 270 -5,7 C -1,1 C 2,1 km/h (1 Bft)
22.03.2019 00:03 17,8 C -1,1 C -2,7 C 45 % 71 % 1033,6 hPa 0,0 l/m 0,3 km/h (0 Bft) W 270 -5,7 C -1,1 C 2,1 km/h (1 Bft)
22.03.2019 00:02 17,8 C -1,1 C -2,7 C 45 % 71 % 1033,6 hPa 0,0 l/m 0,3 km/h (0 Bft) W 270 -5,7 C -1,1 C 2,1 km/h (1 Bft)
22.03.2019 00:01 17,8 C -1,1 C -2,7 C 45 % 71 % 1033,6 hPa 0,0 l/m 0,3 km/h (0 Bft) W 270 -5,7 C -1,1 C 2,1 km/h (1 Bft)
22.03.2019 00:00 17,8 C -1,1 C -2,7 C 45 % 71 % 1033,6 hPa 0,0 l/m 0,2 km/h (0 Bft) W 270 -5,7 C -1,1 C 2,3 km/h (1 Bft)
_ Min-Zeit 05:51 05:27 05:53 00:17 09:31 05:15 - 04:11 - - 05:27 05:27 00:13
Minimum _ 16,4 C -3,4 C -4,6 C 44 % 56 % 1031,6 hPa - 0,0 km/h (0 Bft) - - -6,8 C -3,4 C 0,0 km/h (0 Bft)
_ Max-Zeit 09:11 09:37 09:27 06:39 07:59 00:00 00:00 09:21 - - 09:27 09:37 09:03
Maximum _ 17,9 C 8,9 C 7,8 C 51 % 82 % 1033,6 hPa 0,0 l/m 6,6 km/h
O-SO (2 Bft)
- - 1,1 C 8,3 C 15,3 km/h
O (3 Bft)
Durchschnitt _ 17,1 C -0,7 C -2,0 C 48 % 74 % 1032,4 hPa #0,0 l/m 1,4 km/h (1 Bft) W - -4,8 C -0,8 C 2,3 km/h (1 Bft)